M I D A S
Marine Information and Data Acquisition System
Tripno 1481 of the Zeeleeuw from 2008-05-07 07:14:58 to 2008-05-08 14:39:03
Back to CruiseResearch ActivitiesStationsMapUnderway DataData graphs

EquipmentUnitsComment
TimeDGPSUTC
LatitudeDGPSDM.mWGS84
LongitudeDGPSDM.mWGS84
TemperatureSBE03/SBE38deg celciusITS90
ConductivitySBE21S/mITS90
SalinitySBE21 Practical Salinity Units
ChlorophylAChelsea fluorimeterg/lCalibrated in Aceton
Missing or incorrect values are displayed as -999
Sea surface data collected by the RV Zeeleeuw from 2008-05-07 07:18:57 to 2008-05-08 14:44:06
                                                                                    Next 1000 lines
Time Latitude Longitude Temperature Conductivity Salinity ChlorophylA
2008-05-07 07:19:07 51°13.667 2°55.95 18.8346 0.091913 0.485166 -1.766697
2008-05-07 07:19:12 51°13.668 2°55.947 18.7898 0.091913 0.485166 -1.766697
2008-05-07 07:19:17 51°13.67 2°55.942 18.8477 0.091913 0.485175 -1.801521
2008-05-07 07:19:22 51°13.671 2°55.937 18.8801 0.091913 0.485175 -1.766697
2008-05-07 07:19:27 51°13.673 2°55.932 18.9086 0.091913 0.485175 -1.801521
2008-05-07 07:19:32 51°13.676 2°55.926 18.9101 0.091913 0.485183 -1.801521
2008-05-07 07:19:37 51°13.678 2°55.919 18.9154 0.091913 0.485183 -1.766697
2008-05-07 07:19:42 51°13.681 2°55.912 18.9133 0.091913 0.485183 -1.766697
2008-05-07 07:19:47 51°13.683 2°55.905 18.9186 0.091913 0.485183 -1.801521
2008-05-07 07:19:52 51°13.686 2°55.898 18.9191 0.091913 0.485183 -1.766697
2008-05-07 07:19:57 51°13.689 2°55.89 18.9218 0.091913 0.485191 -1.801521
2008-05-07 07:20:02 51°13.691 2°55.883 18.9194 0.091913 0.485191 -1.801521
2008-05-07 07:20:07 51°13.693 2°55.875 18.9201 0.091913 0.485199 -1.801521
2008-05-07 07:20:12 51°13.695 2°55.866 18.9225 0.091913 0.485199 -1.801521
2008-05-07 07:20:17 51°13.696 2°55.858 18.9242 0.091913 0.485207 -1.801521
2008-05-07 07:20:22 51°13.697 2°55.85 18.9255 0.091913 0.485207 -1.766697
2008-05-07 07:20:27 51°13.698 2°55.842 18.9281 0.091913 0.485207 -1.766697
2008-05-07 07:20:32 51°13.699 2°55.833 18.9288 0.091913 0.485207 -1.766697
2008-05-07 07:20:37 51°13.7 2°55.825 18.9337 0.091913 0.485207 -1.801521
2008-05-07 07:20:42 51°13.701 2°55.818 18.9311 0.091913 0.485207 -1.801521
2008-05-07 07:20:47 51°13.701 2°55.81 18.9318 0.091913 0.485207 -1.766697
2008-05-07 07:20:52 51°13.702 2°55.803 18.9322 0.091913 0.485207 -1.766697
2008-05-07 07:20:57 51°13.702 2°55.796 18.9327 0.091913 0.485207 -1.766697
2008-05-07 07:21:02 51°13.702 2°55.79 18.9344 0.091913 0.485207 -1.801521
2008-05-07 07:21:07 51°13.702 2°55.784 18.9317 0.091913 0.485207 -1.766697
2008-05-07 07:21:12 51°13.702 2°55.777 18.9325 0.091913 0.485207 -1.766697
2008-05-07 07:21:17 51°13.702 2°55.771 18.9326 0.091913 0.485215 -1.801521
2008-05-07 07:21:22 51°13.702 2°55.766 18.9304 0.091913 0.485215 -1.801521
2008-05-07 07:21:27 51°13.702 2°55.76 18.9283 0.091913 0.485215 -1.766697
2008-05-07 07:21:32 51°13.702 2°55.755 18.9295 0.091913 0.485223 -1.801521
2008-05-07 07:21:37 51°13.702 2°55.749 18.9287 0.091913 0.485232 -1.766697
2008-05-07 07:21:42 51°13.702 2°55.745 18.9304 0.091913 0.485232 -1.766697
2008-05-07 07:21:46 51°13.702 2°55.741 18.9306 0.091913 0.485232 -1.801521
2008-05-07 07:21:52 51°13.702 2°55.736 18.9298 0.091913 0.485232 -1.766697
2008-05-07 07:21:57 51°13.702 2°55.732 18.9308 0.091913 0.485232 -1.766697
2008-05-07 07:22:02 51°13.702 2°55.729 18.9308 0.091913 0.48524 -1.801521
2008-05-07 07:22:07 51°13.701 2°55.726 18.9308 0.091913 0.48524 -1.766697
2008-05-07 07:22:12 51°13.701 2°55.724 18.9318 0.091913 0.48524 -1.766697
2008-05-07 07:22:17 51°13.701 2°55.721 18.9317 0.091913 0.485248 -1.766697
2008-05-07 07:22:22 51°13.702 2°55.719 18.9321 0.091913 0.485248 -1.801521
2008-05-07 07:22:27 51°13.702 2°55.718 18.932 0.091913 0.485248 -1.766697
2008-05-07 07:22:32 51°13.702 2°55.716 18.9324 0.091913 0.485256 -1.801521
2008-05-07 07:22:37 51°13.702 2°55.716 18.9342 0.091913 0.485256 -1.766697
2008-05-07 07:22:42 51°13.703 2°55.715 18.9355 0.091913 0.485256 -1.766697
2008-05-07 07:22:47 51°13.704 2°55.715 18.9398 0.091913 0.485256 -1.766697
2008-05-07 07:22:52 51°13.704 2°55.716 18.9434 0.091913 0.485256 -1.801521
2008-05-07 07:22:57 51°13.706 2°55.716 18.953 0.091913 0.485256 -1.766697
2008-05-07 07:23:01 51°13.707 2°55.717 18.9665 0.091913 0.485264 -1.801521
2008-05-07 07:23:07 51°13.71 2°55.718 18.9806 0.091913 0.485264 -1.801521
2008-05-07 07:23:12 51°13.712 2°55.719 18.9887 0.091913 0.485264 -1.801521
2008-05-07 07:23:17 51°13.715 2°55.72 18.9983 0.091913 0.485272 -1.801521
2008-05-07 07:23:22 51°13.718 2°55.72 19.0189 0.091913 0.485272 -1.766697
2008-05-07 07:23:27 51°13.721 2°55.721 19.0224 0.091913 0.485272 -1.766697
2008-05-07 07:23:32 51°13.725 2°55.72 19.0324 0.091913 0.485272 -1.801521
2008-05-07 07:23:37 51°13.729 2°55.719 19.0378 0.091913 0.48528 -1.766697
2008-05-07 07:23:42 51°13.733 2°55.717 19.0291 0.091913 0.48528 -1.766697
2008-05-07 07:23:47 51°13.738 2°55.714 19.0107 0.091913 0.48528 -1.766697
2008-05-07 07:23:52 51°13.743 2°55.71 18.9915 0.091913 0.48528 -1.801521
2008-05-07 07:23:57 51°13.749 2°55.706 18.9614 0.091913 0.485289 -1.801521
2008-05-07 07:24:02 51°13.755 2°55.702 18.9352 0.091913 0.485289 -1.766697
2008-05-07 07:24:06 51°13.759 2°55.698 18.9252 0.091913 0.485289 -1.766697
2008-05-07 07:24:12 51°13.767 2°55.692 18.9099 0.091913 0.485289 -1.766697
2008-05-07 07:24:17 51°13.773 2°55.686 18.9081 0.091913 0.48528 -1.801521
2008-05-07 07:24:22 51°13.78 2°55.681 18.9059 0.091913 0.485289 -1.801521
2008-05-07 07:24:27 51°13.787 2°55.675 18.909 0.091913 0.485289 -1.766697
2008-05-07 07:24:32 51°13.794 2°55.67 18.9016 0.091913 0.485289 -1.766697
2008-05-07 07:24:37 51°13.801 2°55.664 18.8972 0.091913 0.485289 -1.766697
2008-05-07 07:24:42 51°13.809 2°55.658 18.9016 0.091913 0.485289 -1.766697
2008-05-07 07:24:47 51°13.816 2°55.652 18.9053 0.091913 0.485289 -1.766697
2008-05-07 07:24:52 51°13.824 2°55.646 18.9054 0.091913 0.485297 -1.766697
2008-05-07 07:24:57 51°13.832 2°55.639 18.9023 0.091913 0.485297 -1.766697
2008-05-07 07:25:02 51°13.84 2°55.633 18.8939 0.091913 0.485305 -1.801521
2008-05-07 07:25:07 51°13.848 2°55.626 18.9043 0.091913 0.485305 -1.801521
2008-05-07 07:25:12 51°13.856 2°55.621 18.9057 0.091913 0.485305 -1.801521
2008-05-07 07:25:17 51°13.865 2°55.615 18.9087 0.091913 0.485313 -1.766697
2008-05-07 07:25:22 51°13.873 2°55.609 18.9127 0.091913 0.485313 -1.766697
2008-05-07 07:25:27 51°13.882 2°55.602 18.9145 0.091913 0.485321 -1.766697
2008-05-07 07:25:32 51°13.89 2°55.596 18.9258 0.091913 0.485321 -1.766697
2008-05-07 07:25:37 51°13.899 2°55.589 18.9239 0.091913 0.485338 -1.766697
2008-05-07 07:25:42 51°13.907 2°55.583 18.9233 0.091913 0.485338 -1.766697
2008-05-07 07:25:47 51°13.916 2°55.576 18.9035 0.091913 0.485338 -1.801521
2008-05-07 07:25:52 51°13.924 2°55.57 18.906 0.091913 0.485346 -1.766697
2008-05-07 07:25:57 51°13.933 2°55.564 18.9047 0.091913 0.485346 -1.801521
2008-05-07 07:26:02 51°13.941 2°55.558 18.9079 0.091913 0.485354 -1.766697
2008-05-07 07:26:07 51°13.95 2°55.552 18.9084 0.091913 0.485354 -1.801521
2008-05-07 07:26:12 51°13.959 2°55.547 18.9051 0.091913 0.485354 -1.801521
2008-05-07 07:26:17 51°13.967 2°55.541 18.9121 0.091913 0.485354 -1.766697
2008-05-07 07:26:22 51°13.976 2°55.535 18.9166 0.091913 0.485354 -1.801521
2008-05-07 07:26:27 51°13.984 2°55.529 18.918 0.091913 0.485354 -1.766697
2008-05-07 07:26:32 51°13.992 2°55.524 18.9252 0.091913 0.485354 -1.766697
2008-05-07 07:26:37 51°14 2°55.518 18.9273 0.091913 0.485362 -1.801521
2008-05-07 07:26:42 51°14.008 2°55.512 18.929 0.091913 0.485362 -1.801521
2008-05-07 07:26:47 51°14.016 2°55.506 18.9329 0.091913 0.485362 -1.766697
2008-05-07 07:26:52 51°14.023 2°55.499 18.9408 0.091913 0.48537 -1.801521
2008-05-07 07:26:57 51°14.031 2°55.493 18.9683 0.091913 0.48537 -1.766697
2008-05-07 07:27:02 51°14.039 2°55.486 18.9679 0.091913 0.485378 -1.801521
2008-05-07 07:27:07 51°14.046 2°55.479 18.9622 0.091913 0.485378 -1.801521
2008-05-07 07:27:12 51°14.054 2°55.473 18.9567 0.091913 0.485378 -1.801521
2008-05-07 07:27:17 51°14.062 2°55.466 18.9441 0.091913 0.485378 -1.766697
2008-05-07 07:27:22 51°14.07 2°55.461 18.9384 0.091913 0.485378 -1.766697
2008-05-07 07:27:27 51°14.079 2°55.455 18.9369 0.091913 0.485387 -1.766697
2008-05-07 07:27:32 51°14.087 2°55.449 18.9432 0.091913 0.485387 -1.801521
2008-05-07 07:27:37 51°14.095 2°55.443 18.9534 0.091913 0.485387 -1.766697
2008-05-07 07:27:42 51°14.103 2°55.437 18.9692 0.091913 0.485387 -1.766697
2008-05-07 07:27:47 51°14.112 2°55.43 18.9647 0.091913 0.485387 -1.766697
2008-05-07 07:27:52 51°14.12 2°55.423 18.9626 0.091913 0.485395 -1.766697
2008-05-07 07:27:57 51°14.128 2°55.416 18.9627 0.091913 0.485395 -1.801521
2008-05-07 07:28:02 51°14.137 2°55.409 18.9585 0.09181 0.484831 -1.766697
2008-05-07 07:28:07 51°14.145 2°55.402 18.9621 0.091913 0.485395 -1.766697
2008-05-07 07:28:12 51°14.154 2°55.395 18.9701 0.091913 0.485395 -1.766697
2008-05-07 07:28:17 51°14.162 2°55.387 18.9741 0.091913 0.485403 -1.766697
2008-05-07 07:28:22 51°14.17 2°55.378 18.9774 0.09181 0.484839 -1.766697
2008-05-07 07:28:27 51°14.178 2°55.369 18.9853 0.09181 0.484839 -1.766697
2008-05-07 07:28:32 51°14.187 2°55.361 18.9883 0.09181 0.484847 -1.766697
2008-05-07 07:28:37 51°14.195 2°55.351 18.9987 0.09181 0.484847 -1.766697
2008-05-07 07:28:42 51°14.203 2°55.341 18.9978 0.09181 0.484847 -1.766697
2008-05-07 07:28:47 51°14.211 2°55.33 18.988 0.09181 0.484855 -1.801521
2008-05-07 07:28:52 51°14.219 2°55.319 18.9755 0.09181 0.484855 -1.801521
2008-05-07 07:28:57 51°14.227 2°55.308 18.9806 0.09181 0.484863 -1.766697
2008-05-07 07:29:02 51°14.235 2°55.296 18.9836 0.09181 0.484863 -1.801521
2008-05-07 07:29:07 51°14.243 2°55.285 18.993 0.09181 0.484872 -1.801521
2008-05-07 07:29:12 51°14.25 2°55.273 18.9853 0.09181 0.484872 -1.801521
2008-05-07 07:29:17 51°14.258 2°55.261 18.9562 0.09181 0.484872 -1.766697
2008-05-07 07:29:22 51°14.265 2°55.248 18.9475 0.09181 0.48488 -1.766697
2008-05-07 07:29:27 51°14.273 2°55.236 18.9625 0.09181 0.48488 -1.801521
2008-05-07 07:29:32 51°14.28 2°55.223 18.9807 0.09181 0.48488 -1.766697
2008-05-07 07:29:37 51°14.287 2°55.21 18.9982 0.09181 0.484888 -1.801521
2008-05-07 07:29:41 51°14.293 2°55.2 18.9775 0.09181 0.484888 -1.801521
2008-05-07 07:29:47 51°14.302 2°55.183 18.9476 0.09181 0.484896 -1.766697
2008-05-07 07:29:52 51°14.309 2°55.17 18.9179 0.09181 0.484888 -1.801521
2008-05-07 07:29:57 51°14.315 2°55.157 18.9654 0.09181 0.484896 -1.801521
2008-05-07 07:30:02 51°14.322 2°55.144 18.9495 0.09181 0.484896 -1.801521
2008-05-07 07:30:07 51°14.328 2°55.131 18.9731 0.09181 0.484904 -1.766697
2008-05-07 07:30:12 51°14.335 2°55.119 18.9439 0.09181 0.484904 -1.766697
2008-05-07 07:30:17 51°14.341 2°55.106 18.975 0.09181 0.484904 -1.801521
2008-05-07 07:30:22 51°14.347 2°55.094 18.9809 0.09181 0.484912 -1.766697
2008-05-07 07:30:27 51°14.353 2°55.081 19.0172 0.09181 0.484921 -1.801521
2008-05-07 07:30:32 51°14.358 2°55.068 19.0194 0.09181 0.484921 -1.766697
2008-05-07 07:30:37 51°14.364 2°55.056 18.9943 0.09181 0.484921 -1.801521
2008-05-07 07:30:42 51°14.369 2°55.043 18.976 0.09181 0.484921 -1.801521
2008-05-07 07:30:47 51°14.375 2°55.03 18.9735 0.09181 0.484929 -1.766697
2008-05-07 07:30:52 51°14.38 2°55.017 18.9478 0.09181 0.484937 -1.766697
2008-05-07 07:30:57 51°14.386 2°55.004 18.922 0.09181 0.484937 -1.766697
2008-05-07 07:31:02 51°14.392 2°54.991 18.9401 0.09181 0.484937 -1.766697
2008-05-07 07:31:06 51°14.397 2°54.98 18.9537 0.09181 0.484945 -1.801521
2008-05-07 07:31:12 51°14.406 2°54.964 18.8952 0.09181 0.484945 -1.801521
2008-05-07 07:31:17 51°14.415 2°54.95 18.9143 0.09181 0.484953 -1.801521
2008-05-07 07:31:22 51°14.423 2°54.937 18.8413 0.09181 0.484953 -1.801521
2008-05-07 07:31:26 51°14.431 2°54.926 18.8424 0.09181 0.484953 -1.801521
2008-05-07 07:31:31 51°14.441 2°54.914 18.857 0.09181 0.484953 -1.801521
2008-05-07 07:31:36 51°14.452 2°54.903 18.9914 0.09181 0.484969 -1.766697
2008-05-07 07:31:41 51°14.464 2°54.892 18.9851 0.09181 0.484969 -1.766697
2008-05-07 07:31:46 51°14.475 2°54.88 19.01 0.09181 0.484978 -1.766697
2008-05-07 07:31:52 51°14.49 2°54.864 19.0092 0.09181 0.484986 -1.801521
2008-05-07 07:31:57 51°14.501 2°54.85 19.0086 0.09181 0.484994 -1.766697
2008-05-07 07:32:02 51°14.513 2°54.835 18.9178 0.09181 0.484986 -1.766697
2008-05-07 07:32:07 51°14.526 2°54.82 18.9462 0.09181 0.484978 -1.766697
2008-05-07 07:32:12 51°14.539 2°54.806 18.9236 0.09181 0.484978 -1.766697
2008-05-07 07:32:17 51°14.552 2°54.791 18.8971 0.09181 0.484986 -1.801521
2008-05-07 07:32:22 51°14.565 2°54.776 18.907 0.09181 0.484986 -1.801521
2008-05-07 07:32:27 51°14.578 2°54.761 18.8739 0.09181 0.484994 -1.801521
2008-05-07 07:32:32 51°14.592 2°54.747 18.9438 0.09181 0.48501 -1.801521
2008-05-07 07:32:37 51°14.606 2°54.732 18.9216 0.09181 0.485018 -1.766697
2008-05-07 07:32:42 51°14.619 2°54.717 18.9163 0.09181 0.485018 -1.766697
2008-05-07 07:32:47 51°14.633 2°54.702 18.9237 0.09181 0.485027 -1.766697
2008-05-07 07:32:52 51°14.647 2°54.686 18.9279 0.09181 0.485035 -1.801521
2008-05-07 07:32:57 51°14.661 2°54.671 18.9531 0.09181 0.485043 -1.801521
2008-05-07 07:33:02 51°14.675 2°54.656 18.9344 0.09181 0.485043 -1.766697
2008-05-07 07:33:07 51°14.689 2°54.641 18.9649 0.09181 0.485043 -1.766697
2008-05-07 07:33:12 51°14.703 2°54.626 18.9763 0.09181 0.485043 -1.766697
2008-05-07 07:33:17 51°14.718 2°54.611 19.0004 0.09181 0.485043 -1.801521
2008-05-07 07:33:22 51°14.732 2°54.595 18.9751 0.09181 0.485051 -1.801521
2008-05-07 07:33:27 51°14.745 2°54.579 19.0158 0.09181 0.485116 -1.801521
2008-05-07 07:33:32 51°14.759 2°54.563 19.0022 0.09181 0.485165 -1.766697
2008-05-07 07:33:37 51°14.773 2°54.547 19.0034 0.09181 0.485067 -1.766697
2008-05-07 07:33:42 51°14.787 2°54.531 18.9946 0.09181 0.485067 -1.766697
2008-05-07 07:33:47 51°14.8 2°54.514 18.9731 0.09181 0.485043 -1.766697
2008-05-07 07:33:52 51°14.814 2°54.498 18.9424 0.09181 0.485035 -1.766697
2008-05-07 07:33:57 51°14.828 2°54.483 18.9754 0.09181 0.485059 -1.801521
2008-05-07 07:34:02 51°14.842 2°54.468 18.9415 0.09181 0.485108 -1.801521
2008-05-07 07:34:07 51°14.856 2°54.453 18.911 0.09181 0.485165 -1.766697
2008-05-07 07:34:12 51°14.871 2°54.438 18.954 0.09181 0.485165 -1.766697
2008-05-07 07:34:17 51°14.885 2°54.424 18.9681 0.09181 0.485231 -1.766697
2008-05-07 07:34:22 51°14.899 2°54.41 18.9948 0.09181 0.485263 -1.766697
2008-05-07 07:34:27 51°14.914 2°54.397 19.0006 0.09181 0.48528 -1.801521
2008-05-07 07:34:32 51°14.928 2°54.383 18.9453 0.09181 0.485271 -1.801521
2008-05-07 07:34:37 51°14.943 2°54.371 18.9995 0.09181 0.485263 -1.801521
2008-05-07 07:34:42 51°14.957 2°54.358 18.9738 0.09181 0.485263 -1.801521
2008-05-07 07:34:47 51°14.971 2°54.345 18.9932 0.09181 0.485247 -1.801521
2008-05-07 07:34:52 51°14.985 2°54.332 18.9823 0.09181 0.485239 -1.766697
2008-05-07 07:34:57 51°14.999 2°54.319 18.9575 0.09181 0.485214 -1.766697
2008-05-07 07:35:02 51°15.013 2°54.306 18.9954 0.09181 0.485206 -1.766697
2008-05-07 07:35:07 51°15.027 2°54.292 18.9678 0.09181 0.485222 -1.766697
2008-05-07 07:35:12 51°15.041 2°54.279 18.9811 0.09181 0.485222 -1.766697
2008-05-07 07:35:17 51°15.055 2°54.266 18.9204 0.09181 0.485231 -1.801521
2008-05-07 07:35:22 51°15.069 2°54.252 18.9909 0.09181 0.485239 -1.766697
2008-05-07 07:35:27 51°15.083 2°54.239 18.9742 0.09181 0.48528 -1.766697
2008-05-07 07:35:32 51°15.097 2°54.225 18.9653 0.09181 0.485296 -1.801521
2008-05-07 07:35:37 51°15.111 2°54.212 18.9022 0.09181 0.485296 -1.766697
2008-05-07 07:35:42 51°15.125 2°54.199 18.9398 0.09181 0.485296 -1.766697
2008-05-07 07:35:47 51°15.139 2°54.186 18.9552 0.09181 0.485304 -1.766697
2008-05-07 07:35:52 51°15.154 2°54.173 18.9617 0.09181 0.485304 -1.766697
2008-05-07 07:35:57 51°15.169 2°54.161 18.982 0.09181 0.485304 -1.766697
2008-05-07 07:36:02 51°15.183 2°54.148 18.9823 0.09181 0.485304 -1.801521
2008-05-07 07:36:07 51°15.198 2°54.136 19.0108 0.09181 0.48532 -1.801521
2008-05-07 07:36:12 51°15.213 2°54.123 18.9986 0.09181 0.48532 -1.801521
2008-05-07 07:36:17 51°15.228 2°54.111 18.9685 0.091707 0.484756 -1.801521
2008-05-07 07:36:22 51°15.242 2°54.098 19.0039 0.091707 0.484772 -1.766697
2008-05-07 07:36:27 51°15.257 2°54.085 18.9932 0.091707 0.48478 -1.801521
2008-05-07 07:36:32 51°15.272 2°54.072 18.9774 0.091707 0.48478 -1.801521
2008-05-07 07:36:37 51°15.287 2°54.059 18.0328 0.091707 0.484911 -1.627401
2008-05-07 07:36:42 51°15.302 2°54.046 17.1066 0.091707 0.484911 -1.627401
2008-05-07 07:36:47 51°15.316 2°54.033 16.5202 0.099838 0.533961 -1.592577
2008-05-07 07:36:52 51°15.331 2°54.02 15.8974 0.182484 1.002018 -1.139864
2008-05-07 07:36:57 51°15.346 2°54.008 15.4724 1.008847 6.231814 4.954345
2008-05-07 07:37:02 51°15.361 2°53.994 15.4445 2.654227 18.209104 22.018131
2008-05-07 07:37:07 51°15.376 2°53.981 15.1782 3.040856 21.651785 30.34108
2008-05-07 07:37:12 51°15.391 2°53.968 15.0683 3.040856 21.651785 30.34108
2008-05-07 07:37:17 51°15.406 2°53.955 14.8341 3.066429 22.308653 33.405597
2008-05-07 07:37:22 51°15.42 2°53.942 14.7131 3.458158 25.854896 33.753837
2008-05-07 07:37:27 51°15.435 2°53.929 14.6102 3.408237 25.880416 35.251272
2008-05-07 07:37:32 51°15.45 2°53.915 14.5402 3.493394 26.907364 35.878105
2008-05-07 07:37:37 51°15.465 2°53.901 14.4651 3.426063 26.580478 36.470114
2008-05-07 07:37:42 51°15.48 2°53.888 14.3614 3.426063 26.580478 36.470114
2008-05-07 07:37:47 51°15.494 2°53.875 14.2619 3.410011 26.628911 37.932724
2008-05-07 07:37:52 51°15.509 2°53.862 14.1851 3.433527 26.994657 38.733677
2008-05-07 07:37:57 51°15.524 2°53.848 14.1024 3.460773 27.364508 39.18639
2008-05-07 07:38:02 51°15.539 2°53.835 14.0565 3.494962 27.790178 38.768501
2008-05-07 07:38:07 51°15.554 2°53.822 14.0466 3.521589 28.116755 38.489909
2008-05-07 07:38:12 51°15.569 2°53.808 13.9701 3.521589 28.116755 38.489909
2008-05-07 07:38:17 51°15.584 2°53.795 13.9132 3.504392 28.048108 38.315788
2008-05-07 07:38:22 51°15.599 2°53.781 13.9032 3.580755 28.830816 38.002372
2008-05-07 07:38:27 51°15.614 2°53.768 13.8429 3.605418 29.115592 37.688955
2008-05-07 07:38:32 51°15.629 2°53.754 13.7987 3.638477 29.495221 37.480011
2008-05-07 07:38:37 51°15.644 2°53.741 13.7169 3.656095 29.707082 37.549659
2008-05-07 07:38:42 51°15.658 2°53.728 13.6561 3.656095 29.707082 37.549659
2008-05-07 07:38:47 51°15.673 2°53.714 13.6367 3.671642 29.895917 37.688955
2008-05-07 07:38:52 51°15.688 2°53.701 13.637 3.697242 30.188449 37.932724
2008-05-07 07:38:57 51°15.703 2°53.688 13.5829 3.709992 30.35097 38.838149
2008-05-07 07:39:02 51°15.718 2°53.675 13.5798 3.726162 30.541917 39.987343
2008-05-07 07:39:07 51°15.733 2°53.661 13.5574 3.751765 30.834506 41.728546
2008-05-07 07:39:12 51°15.748 2°53.648 13.5482 3.751765 30.834506 41.728546
2008-05-07 07:39:17 51°15.763 2°53.634 13.5215 3.775815 31.107452 44.096581
2008-05-07 07:39:22 51°15.777 2°53.621 13.5156 3.795719 31.334549 46.255673
2008-05-07 07:39:27 51°15.792 2°53.607 13.4965 3.811996 31.515912 48.867477
2008-05-07 07:39:32 51°15.807 2°53.594 13.4706 3.819668 31.61568 51.897169
2008-05-07 07:39:37 51°15.822 2°53.58 13.4812 3.822467 31.667931 55.623343
2008-05-07 07:39:42 51°15.837 2°53.567 13.4644 3.822467 31.667931 55.623343
2008-05-07 07:39:47 51°15.852 2°53.553 13.4194 3.830554 31.762092 60.011174
2008-05-07 07:39:52 51°15.867 2°53.54 13.4062 3.831799 31.792484 64.468653
2008-05-07 07:39:57 51°15.881 2°53.526 13.3746 3.845899 31.946001 69.518141
2008-05-07 07:40:02 51°15.896 2°53.513 13.4019 3.851187 32.01681 69.692261
2008-05-07 07:40:07 51°15.911 2°53.499 13.3704 3.854298 32.06189 69.657437
2008-05-07 07:40:12 51°15.926 2°53.485 13.3619 3.854298 32.06189 69.657437
2008-05-07 07:40:17 51°15.941 2°53.472 13.3416 3.857097 32.105557 69.622613
2008-05-07 07:40:22 51°15.956 2°53.458 13.3251 3.861037 32.164127 69.622613
2008-05-07 07:40:27 51°15.97 2°53.444 13.3267 3.863215 32.203568 69.622613
2008-05-07 07:40:32 51°15.985 2°53.43 13.3132 3.862386 32.214413 69.587789
2008-05-07 07:40:37 51°16 2°53.416 13.2968 3.861764 32.218628 69.587789
2008-05-07 07:40:42 51°16.015 2°53.402 13.3018 3.861764 32.218628 69.587789
2008-05-07 07:40:47 51°16.029 2°53.388 13.2823 3.858343 32.200398 69.587789
2008-05-07 07:40:52 51°16.044 2°53.374 13.2992 3.858239 32.215865 69.587789
2008-05-07 07:40:57 51°16.059 2°53.36 13.2592 3.864875 32.290479 69.552965
2008-05-07 07:41:02 51°16.074 2°53.347 13.2685 3.860209 32.257806 69.552965
2008-05-07 07:41:07 51°16.089 2°53.334 13.258 3.850464 32.179265 69.587789
2008-05-07 07:41:12 51°16.104 2°53.32 13.2554 3.850464 32.179265 69.587789
2008-05-07 07:41:17 51°16.119 2°53.306 13.2338 3.861765 32.294515 69.587789
2008-05-07 07:41:22 51°16.134 2°53.292 13.2378 3.863528 32.322427 69.587789
2008-05-07 07:41:27 51°16.149 2°53.279 13.232 3.862491 32.320671 69.587789
2008-05-07 07:41:32 51°16.164 2°53.266 13.2364 3.865913 32.36336 69.587789
2008-05-07 07:41:37 51°16.179 2°53.253 13.2238 3.85907 32.307466 69.587789
2008-05-07 07:41:42 51°16.194 2°53.239 13.2272 3.85907 32.307466 69.587789
2008-05-07 07:41:47 51°16.209 2°53.226 13.2279 3.86021 32.324575 69.587789
2008-05-07 07:41:52 51°16.223 2°53.213 13.209 3.866328 32.393897 69.622613
2008-05-07 07:41:57 51°16.238 2°53.199 13.217 3.866743 32.401375 69.622613
2008-05-07 07:42:02 51°16.253 2°53.185 13.206 3.866224 32.400867 69.622613
2008-05-07 07:42:07 51°16.268 2°53.172 13.2052 3.866743 32.413649 69.657437
2008-05-07 07:42:12 51°16.282 2°53.158 13.1957 3.866743 32.413649 69.657437
2008-05-07 07:42:17 51°16.297 2°53.145 13.1857 3.863425 32.387723 69.657437
2008-05-07 07:42:22 51°16.312 2°53.131 13.1798 3.867054 32.424502 69.657437
2008-05-07 07:42:27 51°16.326 2°53.117 13.1854 3.869957 32.45596 69.692261
2008-05-07 07:42:32 51°16.341 2°53.103 13.1831 3.871202 32.476997 69.831557
2008-05-07 07:42:37 51°16.356 2°53.089 13.1802 3.87369 32.503153 69.622613
2008-05-07 07:42:42 51°16.371 2°53.076 13.1761 3.87369 32.503153 69.622613
2008-05-07 07:42:47 51°16.385 2°53.062 13.1718 3.874831 32.521068 67.254577
2008-05-07 07:42:52 51°16.4 2°53.048 13.1622 3.876697 32.544328 64.712421
2008-05-07 07:42:57 51°16.414 2°53.034 13.1645 3.881156 32.591121 61.996145
2008-05-07 07:43:02 51°16.429 2°53.021 13.1532 3.885614 32.637937 58.827156
2008-05-07 07:43:07 51°16.444 2°53.008 13.1556 3.886755 32.650798 56.145704
2008-05-07 07:43:12 51°16.459 2°52.996 13.1477 3.886755 32.650798 56.145704
2008-05-07 07:43:17 51°16.474 2°52.983 13.1483 3.890384 32.689148 53.394604
2008-05-07 07:43:22 51°16.489 2°52.971 13.1407 3.893287 32.719986 50.7828
2008-05-07 07:43:27 51°16.503 2°52.958 13.137 3.894946 32.73991 47.927227
2008-05-07 07:43:32 51°16.518 2°52.946 13.137 3.889969 32.699869 46.186025
2008-05-07 07:43:36 51°16.53 2°52.937 13.1313 3.893702 32.739956 44.096581
2008-05-07 07:43:42 51°16.548 2°52.923 13.1286 3.893702 32.739956 44.096581
2008-05-07 07:43:47 51°16.563 2°52.911 13.1344 3.897539 32.779569 42.181258
2008-05-07 07:43:52 51°16.578 2°52.9 13.1175 3.898679 32.794657 40.753472
2008-05-07 07:43:57 51°16.594 2°52.889 13.1104 3.896502 32.778642 40.126639
2008-05-07 07:44:02 51°16.609 2°52.879 13.103 3.898265 32.7981 39.18639
2008-05-07 07:44:07 51°16.624 2°52.869 13.1035 3.902931 32.84626 39.464982
2008-05-07 07:44:12 51°16.639 2°52.858 13.0954 3.902931 32.84626 39.464982
2008-05-07 07:44:17 51°16.655 2°52.847 13.0946 3.904072 32.859898 39.639103
2008-05-07 07:44:22 51°16.67 2°52.836 13.094 3.90262 32.849219 40.091815
2008-05-07 07:44:27 51°16.685 2°52.825 13.0833 3.90262 32.857304 40.126639
2008-05-07 07:44:31 51°16.697 2°52.817 13.0897 3.905212 32.886779 40.47488
2008-05-07 07:44:37 51°16.715 2°52.804 13.0777 3.904798 32.889511 40.649
2008-05-07 07:44:42 51°16.73 2°52.794 13.0808 3.904798 32.889511 40.649
2008-05-07 07:44:47 51°16.745 2°52.783 13.0752 3.904176 32.888087 40.788296
2008-05-07 07:44:52 51°16.76 2°52.772 13.0812 3.908323 32.932191 40.857944
2008-05-07 07:44:57 51°16.775 2°52.761 13.0732 3.910916 32.960967 40.579352
2008-05-07 07:45:02 51°16.789 2°52.751 13.0811 3.910708 32.961971 41.066889
2008-05-07 07:45:07 51°16.804 2°52.74 13.0806 3.911434 32.972483 41.206185
2008-05-07 07:45:12 51°16.819 2°52.73 13.0754 3.911434 32.972483 41.206185
2008-05-07 07:45:17 51°16.833 2°52.719 13.0715 3.915997 33.018314 41.867842
2008-05-07 07:45:22 51°16.848 2°52.708 13.0764 3.909983 32.965489 42.564323
2008-05-07 07:45:27 51°16.862 2°52.697 13.0695 3.91973 33.058586 44.201054
2008-05-07 07:45:32 51°16.877 2°52.686 13.073 3.921078 33.07126 46.743209
2008-05-07 07:45:37 51°16.891 2°52.675 13.0675 3.917552 33.038855 49.703254
2008-05-07 07:45:42 51°16.906 2°52.665 13.0689 3.917552 33.038855 49.703254
2008-05-07 07:45:47 51°16.92 2°52.654 13.0701 3.922115 33.083975 53.916965
2008-05-07 07:45:52 51°16.935 2°52.643 13.0679 3.922322 33.085925 58.061027
2008-05-07 07:45:57 51°16.95 2°52.632 13.0707 3.922841 33.093767 62.866746
2008-05-07 07:46:02 51°16.965 2°52.621 13.0666 3.926263 33.127436 67.115281
2008-05-07 07:46:07 51°16.979 2°52.61 13.0635 3.927922 33.145272 69.796733
2008-05-07 07:46:12 51°16.994 2°52.599 13.0639 3.927922 33.145272 69.796733
2008-05-07 07:46:17 51°17.009 2°52.588 13.0655 3.9329 33.192846 69.692261
2008-05-07 07:46:22 51°17.024 2°52.577 13.0598 3.928752 33.153819 69.657437
2008-05-07 07:46:27 51°17.038 2°52.566 13.0541 3.930826 33.175563 69.657437
2008-05-07 07:46:32 51°17.053 2°52.555 13.0542 3.935492 33.220965 69.622613
2008-05-07 07:46:37 51°17.068 2°52.545 13.0558 3.936944 33.235375 69.622613
2008-05-07 07:46:42 51°17.082 2°52.534 13.0587 3.936944 33.235375 69.622613
2008-05-07 07:46:47 51°17.097 2°52.523 13.0536 3.939433 33.260293 69.622613
2008-05-07 07:46:51 51°17.108 2°52.514 13.056 3.937566 33.244213 69.622613
2008-05-07 07:46:57 51°17.126 2°52.501 13.0544 3.938292 33.254029 69.622613
2008-05-07 07:47:02 51°17.141 2°52.489 13.051 3.940262 33.275564 69.622613
2008-05-07 07:47:07 51°17.155 2°52.479 13.0491 3.94327 33.303884 69.622613
2008-05-07 07:47:11 51°17.167 2°52.469 13.056 3.94327 33.303884 69.622613
2008-05-07 07:47:17 51°17.184 2°52.455 13.0459 3.944307 33.315145 69.622613
2008-05-07 07:47:22 51°17.199 2°52.443 13.0423 3.945551 33.327613 69.622613
2008-05-07 07:47:27 51°17.213 2°52.43 13.0429 3.945655 33.330085 69.622613
2008-05-07 07:47:32 51°17.227 2°52.417 13.0396 3.941818 33.295439 69.622613
2008-05-07 07:47:37 51°17.241 2°52.403 13.038 3.94441 33.320606 69.622613
2008-05-07 07:47:42 51°17.255 2°52.39 13.0353 3.94441 33.320606 69.622613
2008-05-07 07:47:47 51°17.269 2°52.376 13.0367 3.950529 33.378995 69.622613
2008-05-07 07:47:52 51°17.283 2°52.363 13.0357 3.946899 33.344051 69.622613
2008-05-07 07:47:57 51°17.298 2°52.35 13.0328 3.951773 33.39147 69.622613
2008-05-07 07:48:02 51°17.312 2°52.337 13.0276 3.946485 33.34538 69.657437
2008-05-07 07:48:07 51°17.326 2°52.323 13.0289 3.947625 33.359871 69.657437
2008-05-07 07:48:12 51°17.34 2°52.31 13.0283 3.947625 33.359871 69.657437
2008-05-07 07:48:17 51°17.354 2°52.296 13.0237 3.95561 33.438883 69.657437
2008-05-07 07:48:22 51°17.368 2°52.283 13.0268 3.957684 33.460691 69.657437
2008-05-07 07:48:26 51°17.38 2°52.272 13.0256 3.958099 33.465353 69.657437
2008-05-07 07:48:32 51°17.397 2°52.256 13.0196 3.95841 33.470541 69.657437
2008-05-07 07:48:37 51°17.41 2°52.242 13.0153 3.959344 33.480846 69.692261
2008-05-07 07:48:42 51°17.425 2°52.228 13.0175 3.959344 33.480846 69.692261
2008-05-07 07:48:47 51°17.438 2°52.213 13.0157 3.960277 33.491905 69.692261
2008-05-07 07:48:52 51°17.452 2°52.199 13.0134 3.960796 33.499804 69.692261
2008-05-07 07:48:57 51°17.466 2°52.184 13.0142 3.961003 33.502513 69.831557
2008-05-07 07:49:02 51°17.48 2°52.169 13.0121 3.961625 33.511393 69.936029
2008-05-07 07:49:07 51°17.493 2°52.155 13.0114 3.962248 33.518769 69.135076
2008-05-07 07:49:11 51°17.504 2°52.143 13.0015 3.962248 33.518769 69.135076
2008-05-07 07:49:17 51°17.521 2°52.125 13.008 3.962559 33.525469 68.229651
2008-05-07 07:49:22 51°17.534 2°52.11 12.9978 3.963077 33.531869 67.637642
2008-05-07 07:49:27 51°17.548 2°52.095 12.996 3.963492 33.53729 66.627744
2008-05-07 07:49:31 51°17.558 2°52.083 12.9937 3.963907 33.542712 65.47855
2008-05-07 07:49:37 51°17.574 2°52.064 12.9885 3.964426 33.549868 64.19006
2008-05-07 07:49:42 51°17.587 2°52.047 12.9915 3.964426 33.549868 64.19006
2008-05-07 07:49:47 51°17.6 2°52.031 12.9851 3.965048 33.559511 63.354283
2008-05-07 07:49:52 51°17.613 2°52.013 12.985 3.965255 33.561469 62.239913
2008-05-07 07:49:57 51°17.625 2°51.996 12.9853 3.965878 33.570361 61.334488
2008-05-07 07:50:02 51°17.638 2°51.978 12.9821 3.966292 33.578051 60.220118
2008-05-07 07:50:07 51°17.65 2°51.961 12.9851 3.966707 33.586497 59.279869
2008-05-07 07:50:12 51°17.663 2°51.943 12.9783 3.966707 33.586497 59.279869
2008-05-07 07:50:17 51°17.675 2°51.926 12.9788 3.967018 33.592456 58.444092
2008-05-07 07:50:22 51°17.688 2°51.908 12.977 3.967433 33.598641 57.469018
2008-05-07 07:50:27 51°17.7 2°51.89 12.9738 3.967744 33.60309 56.633241
2008-05-07 07:50:32 51°17.712 2°51.872 12.9674 3.967952 33.606561 55.553695
2008-05-07 07:50:37 51°17.725 2°51.854 12.9697 3.968263 33.610256 54.230381
2008-05-07 07:50:42 51°17.737 2°51.837 12.9637 3.968263 33.610256 54.230381
2008-05-07 07:50:47 51°17.75 2°51.818 12.9607 3.968782 33.618179 53.116011
2008-05-07 07:50:52 51°17.762 2°51.8 12.9672 3.968885 33.620671 51.792697
2008-05-07 07:50:57 51°17.774 2°51.782 12.9638 3.969093 33.625656 50.573855
2008-05-07 07:51:02 51°17.787 2°51.765 12.9616 3.969404 33.631622 49.320189
2008-05-07 07:51:07 51°17.8 2°51.748 12.9597 3.969611 33.635852 48.449588
2008-05-07 07:51:12 51°17.813 2°51.731 12.9613 3.969611 33.635852 48.449588
2008-05-07 07:51:17 51°17.825 2°51.714 12.9639 3.969923 33.642577 47.126274
2008-05-07 07:51:22 51°17.838 2°51.697 12.9575 3.968989 33.635268 46.603913
2008-05-07 07:51:27 51°17.851 2°51.68 12.959 3.970026 33.646586 45.489544
2008-05-07 07:51:32 51°17.864 2°51.663 12.9582 3.97013 33.647566 44.793062
2008-05-07 07:51:37 51°17.877 2°51.646 12.9586 3.97013 33.648323 44.026933
2008-05-07 07:51:42 51°17.89 2°51.629 12.9573 3.97013 33.648323 44.026933
2008-05-07 07:51:47 51°17.903 2°51.612 12.962 3.970026 33.6481 42.982212
2008-05-07 07:51:51 51°17.913 2°51.599 12.9626 3.969923 33.647877 41.76337
2008-05-07 07:51:57 51°17.929 2°51.578 12.9624 3.969715 33.64743 40.927592
2008-05-07 07:52:02 51°17.942 2°51.561 12.9615 3.969404 33.645246 40.30076
2008-05-07 07:52:07 51°17.955 2°51.544 12.9605 3.968782 33.640877 39.639103
2008-05-07 07:52:12 51°17.968 2°51.526 12.9599 3.968782 33.640877 39.639103
2008-05-07 07:52:17 51°17.981 2°51.509 12.9627 3.968056 33.63477 39.464982
2008-05-07 07:52:22 51°17.994 2°51.492 12.9654 3.967226 33.625412 39.081918
2008-05-07 07:52:27 51°18.008 2°51.474 12.9677 3.966189 33.615608 38.455085
2008-05-07 07:52:32 51°18.021 2°51.457 12.9633 3.965152 33.605047 37.8979
2008-05-07 07:52:37 51°18.034 2°51.44 12.9564 3.963493 33.590118 37.72378
2008-05-07 07:52:42 51°18.047 2°51.422 12.9556 3.963493 33.590118 37.72378
2008-05-07 07:52:47 51°18.06 2°51.405 12.9538 3.962041 33.576394 37.236243
2008-05-07 07:52:52 51°18.073 2°51.387 12.9558 3.960174 33.558751 36.888002
2008-05-07 07:52:57 51°18.087 2°51.369 12.958 3.958204 33.538619 36.539762
2008-05-07 07:53:02 51°18.1 2°51.352 12.9551 3.956545 33.522939 36.087049
2008-05-07 07:53:06 51°18.11 2°51.338 12.9561 3.953849 33.499722 35.460216
2008-05-07 07:53:12 51°18.126 2°51.317 12.9526 3.953849 33.499722 35.460216
2008-05-07 07:53:17 51°18.139 2°51.299 12.9521 3.951049 33.475526 35.390568
2008-05-07 07:53:22 51°18.152 2°51.281 12.9546 3.948249 33.449824 35.564688
2008-05-07 07:53:27 51°18.165 2°51.263 12.9481 3.945656 33.426836 35.1468
2008-05-07 07:53:31 51°18.176 2°51.248 12.9504 3.943375 33.405284 34.972679
2008-05-07 07:53:37 51°18.191 2°51.227 12.9489 3.940886 33.382526 34.415494
2008-05-07 07:53:42 51°18.205 2°51.21 12.9486 3.940886 33.382526 34.415494
2008-05-07 07:53:47 51°18.218 2°51.193 12.9456 3.937464 33.350204 34.241374
2008-05-07 07:53:52 51°18.232 2°51.177 12.9461 3.936116 33.337473 33.788661
2008-05-07 07:53:57 51°18.246 2°51.162 12.9465 3.933005 33.309594 33.475245
2008-05-07 07:54:02 51°18.261 2°51.147 12.9429 3.928028 33.264094 33.405597
2008-05-07 07:54:07 51°18.275 2°51.133 12.9458 3.927302 33.258738 33.231477
2008-05-07 07:54:12 51°18.29 2°51.121 12.9445 3.927302 33.258738 33.231477
2008-05-07 07:54:17 51°18.303 2°51.109 12.9422 3.925746 33.244801 33.301125
2008-05-07 07:54:22 51°18.316 2°51.099 12.9405 3.92191 33.210075 33.231477
2008-05-07 07:54:27 51°18.329 2°51.089 12.9409 3.917243 33.166028 33.196653
2008-05-07 07:54:32 51°18.34 2°51.08 12.9391 3.915895 33.154052 33.266301
2008-05-07 07:54:37 51°18.351 2°51.073 12.9416 3.912992 33.127396 33.475245
2008-05-07 07:54:42 51°18.36 2°51.066 12.9411 3.912992 33.127396 33.475245
2008-05-07 07:54:47 51°18.368 2°51.06 12.9425 3.910503 33.104657 33.544893
2008-05-07 07:54:52 51°18.376 2°51.055 12.9373 3.907289 33.07656 33.614541
2008-05-07 07:54:57 51°18.383 2°51.05 12.9363 3.902415 33.030579 33.893134
2008-05-07 07:55:02 51°18.39 2°51.045 12.9341 3.901067 33.019349 34.345846
2008-05-07 07:55:07 51°18.396 2°51.041 12.9354 3.898164 32.992704 34.450318
2008-05-07 07:55:12 51°18.401 2°51.037 12.9355 3.898164 32.992704 34.450318
2008-05-07 07:55:17 51°18.406 2°51.033 12.9329 3.895675 32.969231 34.763735
2008-05-07 07:55:22 51°18.411 2°51.029 12.9355 3.89298 32.944547 35.1468
2008-05-07 07:55:27 51°18.415 2°51.026 12.9335 3.890076 32.91865 35.181624
2008-05-07 07:55:32 51°18.419 2°51.022 12.9393 3.887173 32.892754 35.529864
2008-05-07 07:55:37 51°18.423 2°51.019 12.9372 3.884062 32.864164 35.634336
2008-05-07 07:55:42 51°18.426 2°51.015 12.9369 3.884062 32.864164 35.634336
2008-05-07 07:55:47 51°18.429 2°51.012 12.9368 3.882507 32.85024 35.738808
2008-05-07 07:55:51 51°18.431 2°51.01 12.9341 3.880226 32.829473 36.017401
2008-05-07 07:55:57 51°18.434 2°51.006 12.936 3.87639 32.793309 36.295993
2008-05-07 07:56:02 51°18.435 2°51.003 12.9377 3.87442 32.774002 36.295993
2008-05-07 07:56:07 51°18.436 2°51.001 12.9366 3.87245 32.755435 36.400466
2008-05-07 07:56:12 51°18.437 2°50.998 12.9381 3.87245 32.755435 36.400466
2008-05-07 07:56:17 51°18.438 2°50.995 12.9384 3.869443 32.7271 36.470114
2008-05-07 07:56:22 51°18.438 2°50.993 12.9368 3.866436 32.698032 36.748706
2008-05-07 07:56:27 51°18.439 2°50.99 12.9365 3.860319 32.64114 36.679058
2008-05-07 07:56:32 51°18.439 2°50.988 12.9349 3.859178 32.630397 36.679058
2008-05-07 07:56:37 51°18.44 2°50.985 12.9354 3.857934 32.617944 36.78353
2008-05-07 07:56:42 51°18.44 2°50.982 12.9363 3.857934 32.617944 36.78353
2008-05-07 07:56:47 51°18.44 2°50.98 12.9374 3.856172 32.602078 37.096947
2008-05-07 07:56:52 51°18.441 2°50.977 12.9391 3.854202 32.583526 37.096947
2008-05-07 07:56:57 51°18.441 2°50.975 12.9354 3.853165 32.573763 37.445187
2008-05-07 07:57:02 51°18.441 2°50.972 12.9379 3.853372 32.575716 37.72378
2008-05-07 07:57:07 51°18.441 2°50.97 12.9373 3.85078 32.551309 38.002372
2008-05-07 07:57:12 51°18.441 2°50.967 12.9362 3.85078 32.551309 38.002372
2008-05-07 07:57:17 51°18.441 2°50.964 12.9371 3.852439 32.567662 38.629205
2008-05-07 07:57:22 51°18.441 2°50.962 12.94 3.85161 32.559852 38.629205
2008-05-07 07:57:27 51°18.441 2°50.959 12.9427 3.851195 32.555947 38.524733
2008-05-07 07:57:32 51°18.441 2°50.956 12.9426 3.850884 32.553751 38.594381
2008-05-07 07:57:37 51°18.44 2°50.953 12.9413 3.850262 32.547893 38.594381
2008-05-07 07:57:42 51°18.44 2°50.95 12.9387 3.850262 32.547893 38.594381
2008-05-07 07:57:47 51°18.44 2°50.947 12.9401 3.850262 32.547893 38.803325
2008-05-07 07:57:52 51°18.44 2°50.944 12.9435 3.850054 32.545208 39.221214
2008-05-07 07:57:57 51°18.439 2°50.941 12.942 3.849951 32.543499 39.081918
2008-05-07 07:58:02 51°18.439 2°50.938 12.9415 3.849847 32.541058 39.778399
2008-05-07 07:58:07 51°18.44 2°50.935 12.9399 3.849536 32.537397 39.604278
2008-05-07 07:58:11 51°18.44 2°50.933 12.9386 3.849536 32.537397 39.604278
2008-05-07 07:58:17 51°18.441 2°50.929 12.9401 3.84881 32.532029 39.569454
2008-05-07 07:58:22 51°18.442 2°50.926 12.9381 3.848085 32.523732 39.499806
2008-05-07 07:58:27 51°18.444 2°50.922 12.9409 3.84767 32.52056 39.882871
2008-05-07 07:58:32 51°18.446 2°50.918 12.9396 3.845078 32.495429 40.056991
2008-05-07 07:58:37 51°18.448 2°50.912 12.9396 3.846115 32.505188 40.231111
2008-05-07 07:58:42 51°18.451 2°50.906 12.942 3.846115 32.505188 40.231111
2008-05-07 07:58:47 51°18.454 2°50.898 12.9448 3.845285 32.498113 40.30076
2008-05-07 07:58:52 51°18.458 2°50.888 12.9412 3.84373 32.484205 40.544528
2008-05-07 07:58:57 51°18.462 2°50.876 12.9453 3.842797 32.475422 40.718648
2008-05-07 07:59:02 51°18.466 2°50.863 12.9436 3.84176 32.466395 40.788296
2008-05-07 07:59:07 51°18.47 2°50.848 12.9474 3.840723 32.456637 40.509704
2008-05-07 07:59:12 51°18.473 2°50.831 12.9484 3.840723 32.456637 40.509704
2008-05-07 07:59:17 51°18.477 2°50.812 12.9508 3.84062 32.455661 40.405232
2008-05-07 07:59:22 51°18.479 2°50.792 12.9523 3.839894 32.4481 40.788296
2008-05-07 07:59:27 51°18.481 2°50.771 12.953 3.838857 32.438343 40.927592
2008-05-07 07:59:32 51°18.483 2°50.749 12.9565 3.837924 32.428102 40.788296
2008-05-07 07:59:37 51°18.483 2°50.726 12.9623 3.835747 32.406886 40.857944
2008-05-07 07:59:42 51°18.482 2°50.702 12.9639 3.835747 32.406886 40.857944
2008-05-07 07:59:47 51°18.481 2°50.678 12.966 3.833777 32.387624 41.101713
2008-05-07 07:59:52 51°18.478 2°50.653 12.9644 3.831392 32.363735 41.066889
2008-05-07 07:59:57 51°18.476 2°50.628 12.9688 3.828593 32.33595 41.136537
2008-05-07 08:00:02 51°18.473 2°50.602 12.9708 3.82569 32.306469 41.032065
2008-05-07 08:00:07 51°18.47 2°50.576 12.976 3.822373 32.27237 40.82312
2008-05-07 08:00:12 51°18.468 2°50.549 12.9796 3.822373 32.27237 40.82312
2008-05-07 08:00:17 51°18.465 2°50.521 12.9818 3.818848 32.236334 40.997241
2008-05-07 08:00:22 51°18.461 2°50.493 12.9797 3.815427 32.202008 40.892768
2008-05-07 08:00:27 51°18.458 2°50.463 12.9787 3.811902 32.166718 40.788296
2008-05-07 08:00:31 51°18.456 2°50.44 12.9772 3.809932 32.146044 40.857944
2008-05-07 08:00:37 51°18.452 2°50.404 12.9811 3.807548 32.120758 41.101713
2008-05-07 08:00:42 51°18.449 2°50.373 12.9794 3.807548 32.120758 41.101713
2008-05-07 08:00:47 51°18.446 2°50.342 12.9713 3.805059 32.094505 41.275833
2008-05-07 08:00:52 51°18.442 2°50.311 12.9705 3.802779 32.070927 41.58925
2008-05-07 08:00:57 51°18.439 2°50.28 12.9631 3.800913 32.051968 41.902666
2008-05-07 08:01:02 51°18.435 2°50.249 12.9624 3.799461 32.037624 42.808091
2008-05-07 08:01:07 51°18.432 2°50.218 12.9632 3.799254 32.035678 43.295628
2008-05-07 08:01:12 51°18.428 2°50.187 12.9513 3.799254 32.035678 43.295628
2008-05-07 08:01:17 51°18.423 2°50.156 12.952 3.79915 32.034705 43.504572
2008-05-07 08:01:22 51°18.419 2°50.125 12.948 3.799669 32.041011 44.235878
2008-05-07 08:01:27 51°18.413 2°50.094 12.9447 3.800705 32.053625 45.002007
2008-05-07 08:01:32 51°18.409 2°50.063 12.9416 3.801535 32.064295 45.698488
2008-05-07 08:01:37 51°18.403 2°50.032 12.9405 3.802571 32.077636 46.394969
2008-05-07 08:01:42 51°18.398 2°50.001 12.9366 3.802571 32.077636 46.394969
2008-05-07 08:01:47 51°18.391 2°49.971 12.9357 3.803505 32.09145 47.195922
2008-05-07 08:01:52 51°18.386 2°49.94 12.932 3.804438 32.104547 47.578987
2008-05-07 08:01:57 51°18.38 2°49.909 12.929 3.805163 32.114254 48.275468
2008-05-07 08:02:02 51°18.375 2°49.879 12.9312 3.805785 32.121544 48.728181
2008-05-07 08:02:07 51°18.369 2°49.848 12.929 3.8062 32.129055 49.250541
2008-05-07 08:02:12 51°18.363 2°49.817 12.9308 3.8062 32.129055 49.250541
2008-05-07 08:02:17 51°18.357 2°49.787 12.9306 3.806304 32.132922 49.389838
2008-05-07 08:02:22 51°18.352 2°49.756 12.9288 3.806511 32.137041 49.633606
2008-05-07 08:02:27 51°18.346 2°49.726 12.9292 3.806615 32.140185 49.807726
2008-05-07 08:02:32 51°18.341 2°49.695 12.9293 3.806615 32.142356 49.912198
2008-05-07 08:02:37 51°18.335 2°49.665 12.9266 3.806719 32.144054 49.66843
2008-05-07 08:02:42 51°18.329 2°49.634 12.9269 3.806719 32.144054 49.66843
2008-05-07 08:02:47 51°18.323 2°49.604 12.9312 3.806926 32.146727 49.807726
2008-05-07 08:02:51 51°18.319 2°49.579 12.9344 3.807548 32.152575 49.772902
2008-05-07 08:02:57 51°18.312 2°49.543 12.9301 3.808585 32.163045 49.459486
2008-05-07 08:03:02 51°18.306 2°49.513 12.9295 3.810036 32.177415 49.250541
2008-05-07 08:03:07 51°18.3 2°49.483 12.9314 3.811384 32.190088 48.971949
2008-05-07 08:03:12 51°18.293 2°49.453 12.93 3.811384 32.190088 48.971949
2008-05-07 08:03:17 51°18.287 2°49.423 12.9292 3.811695 32.193737 48.693356
2008-05-07 08:03:22 51°18.28 2°49.394 12.9312 3.816049 32.233959 48.310292
2008-05-07 08:03:27 51°18.274 2°49.364 12.9294 3.818848 32.259559 48.066524
2008-05-07 08:03:32 51°18.267 2°49.335 12.9286 3.820507 32.275888 47.718283
2008-05-07 08:03:37 51°18.261 2°49.305 12.9311 3.823099 32.30027 47.509339
2008-05-07 08:03:42 51°18.254 2°49.276 12.9299 3.823099 32.30027 47.509339
2008-05-07 08:03:47 51°18.248 2°49.246 12.9273 3.825691 32.325382 47.26557
2008-05-07 08:03:52 51°18.241 2°49.217 12.9286 3.828593 32.352696 46.743209
2008-05-07 08:03:57 51°18.234 2°49.188 12.928 3.831393 32.379039 46.220849
2008-05-07 08:04:02 51°18.228 2°49.158 12.9247 3.83471 32.410993 45.733312
2008-05-07 08:04:07 51°18.222 2°49.128 12.9219 3.837302 32.435391 45.350247
2008-05-07 08:04:12 51°18.215 2°49.099 12.9213 3.837302 32.435391 45.350247
2008-05-07 08:04:17 51°18.209 2°49.07 12.9186 3.839998 32.460768 44.827887
2008-05-07 08:04:22 51°18.202 2°49.041 12.9207 3.843627 32.495665 44.51447
2008-05-07 08:04:27 51°18.196 2°49.012 12.9202 3.846115 32.519097 44.409998
2008-05-07 08:04:32 51°18.189 2°48.983 12.9179 3.848914 32.546194 44.166229
2008-05-07 08:04:37 51°18.184 2°48.954 12.9122 3.852128 32.577935 43.992109
2008-05-07 08:04:42 51°18.177 2°48.925 12.9123 3.852128 32.577935 43.992109
2008-05-07 08:04:47 51°18.171 2°48.896 12.9103 3.853683 32.594789 44.026933
2008-05-07 08:04:52 51°18.165 2°48.867 12.9062 3.85669 32.623854 43.748341
2008-05-07 08:04:57 51°18.159 2°48.838 12.9024 3.859697 32.653659 43.609045
2008-05-07 08:05:02 51°18.152 2°48.809 12.8998 3.862185 32.677112 43.260804
2008-05-07 08:05:07 51°18.146 2°48.78 12.8966 3.864777 32.704493 43.017036
2008-05-07 08:05:12 51°18.14 2°48.751 12.8935 3.864777 32.704493 43.017036
2008-05-07 08:05:17 51°18.134 2°48.721 12.8866 3.867473 32.732121 42.982212
2008-05-07 08:05:22 51°18.128 2°48.692 12.8862 3.869962 32.757062 42.668795
2008-05-07 08:05:27 51°18.121 2°48.664 12.8786 3.872969 32.788376 42.459851
2008-05-07 08:05:32 51°18.115 2°48.635 12.8792 3.874731 32.80796 42.633971
2008-05-07 08:05:37 51°18.109 2°48.606 12.8734 3.877531 32.838074 42.668795
2008-05-07 08:05:42 51°18.103 2°48.577 12.8662 3.877531 32.838074 42.668795
2008-05-07 08:05:47 51°18.097 2°48.548 12.8642 3.880227 32.866478 42.599147
2008-05-07 08:05:52 51°18.092 2°48.518 12.8582 3.882715 32.894416 42.738443
2008-05-07 08:05:57 51°18.086 2°48.489 12.8483 3.8851 32.920643 42.842915
2008-05-07 08:06:02 51°18.08 2°48.46 12.8476 3.887692 32.948837 42.982212
2008-05-07 08:06:07 51°18.074 2°48.431 12.849 3.890388 32.977276 42.808091
2008-05-07 08:06:12 51°18.068 2°48.402 12.8476 3.890388 32.977276 42.808091
2008-05-07 08:06:17 51°18.063 2°48.373 12.843 3.893188 33.008192 42.842915
2008-05-07 08:06:22 51°18.056 2°48.344 12.8401 3.895988 33.039866 42.982212
2008-05-07 08:06:27 51°18.051 2°48.315 12.8415 3.899513 33.078415 42.738443
2008-05-07 08:06:32 51°18.045 2°48.287 12.8351 3.902209 33.109885 42.459851
2008-05-07 08:06:37 51°18.039 2°48.258 12.8315 3.903661 33.127354 42.181258
2008-05-07 08:06:42 51°18.033 2°48.228 12.8275 3.903661 33.127354 42.181258
2008-05-07 08:06:46 51°18.029 2°48.205 12.8296 3.904801 33.138891 42.007138
2008-05-07 08:06:52 51°18.022 2°48.17 12.8345 3.906253 33.15487 41.798194
2008-05-07 08:06:57 51°18.017 2°48.141 12.8311 3.907705 33.171602 41.415129
2008-05-07 08:07:02 51°18.011 2°48.112 12.8267 3.908638 33.18343 40.82312
2008-05-07 08:07:07 51°18.007 2°48.083 12.8235 3.910816 33.207789 40.47488
2008-05-07 08:07:11 51°18.003 2°48.06 12.8274 3.910816 33.207789 40.47488
2008-05-07 08:07:17 51°17.997 2°48.024 12.8225 3.911749 33.218874 40.440056
2008-05-07 08:07:22 51°17.993 2°47.995 12.8213 3.912579 33.227478 39.987343
2008-05-07 08:07:27 51°17.988 2°47.966 12.8186 3.913408 33.236083 39.743575
2008-05-07 08:07:32 51°17.983 2°47.937 12.8181 3.914341 33.24567 39.673927
2008-05-07 08:07:37 51°17.979 2°47.907 12.8153 3.915689 33.259936 39.325686
2008-05-07 08:07:42 51°17.974 2°47.877 12.8101 3.915689 33.259936 39.325686
2008-05-07 08:07:47 51°17.969 2°47.848 12.8082 3.916623 33.269525 38.838149
2008-05-07 08:07:52 51°17.964 2°47.818 12.8073 3.91766 33.280849 38.629205
2008-05-07 08:07:57 51°17.96 2°47.789 12.8056 3.917867 33.28507 38.455085
2008-05-07 08:08:02 51°17.955 2°47.76 12.7996 3.920563 33.313619 38.037196
2008-05-07 08:08:07 51°17.95 2°47.73 12.7965 3.921808 33.327667 37.793428
2008-05-07 08:08:12 51°17.945 2°47.701 12.792 3.921808 33.327667 37.793428
2008-05-07 08:08:17 51°17.939 2°47.672 12.789 3.923363 33.34542 37.480011
2008-05-07 08:08:22 51°17.934 2°47.643 12.7847 3.924607 33.359474 37.166595
2008-05-07 08:08:27 51°17.928 2°47.614 12.7816 3.925955 33.375268 37.131771
2008-05-07 08:08:32 51°17.922 2°47.586 12.7769 3.927615 33.39326 36.679058
2008-05-07 08:08:37 51°17.916 2°47.557 12.775 3.928963 33.409818 36.330817
2008-05-07 08:08:42 51°17.909 2°47.529 12.7693 3.928963 33.409818 36.330817
2008-05-07 08:08:46 51°17.904 2°47.506 12.7713 3.930829 33.431296 36.226345
2008-05-07 08:08:52 51°17.895 2°47.473 12.7663 3.932177 33.447864 35.947753
2008-05-07 08:08:57 51°17.889 2°47.444 12.7617 3.933318 33.461711 35.564688
2008-05-07 08:09:02 51°17.882 2°47.416 12.7568 3.934977 33.481997 35.425392
2008-05-07 08:09:07 51°17.875 2°47.388 12.7544 3.936326 33.498578 35.216448
2008-05-07 08:09:11 51°17.869 2°47.366 12.7563 3.936326 33.498578 35.216448
2008-05-07 08:09:17 51°17.861 2°47.333 12.7514 3.937674 33.515164 35.042327
2008-05-07 08:09:22 51°17.854 2°47.305 12.7494 3.938711 33.527284 34.798559
2008-05-07 08:09:27 51°17.847 2°47.277 12.746 3.940163 33.545622 34.485143
2008-05-07 08:09:32 51°17.84 2°47.25 12.7445 3.941303 33.558732 34.136902
2008-05-07 08:09:37 51°17.833 2°47.222 12.743 3.94234 33.57314 33.719013
2008-05-07 08:09:42 51°17.826 2°47.194 12.7413 3.94234 33.57314 33.719013
2008-05-07 08:09:47 51°17.819 2°47.166 12.7433 3.94317 33.583301 33.684189
2008-05-07 08:09:52 51°17.812 2°47.138 12.7422 3.944 33.594224 33.510069
2008-05-07 08:09:57 51°17.805 2°47.111 12.7366 3.944933 33.605374 32.883236
2008-05-07 08:10:02 51°17.799 2°47.083 12.7354 3.945866 33.617287 32.500171
2008-05-07 08:10:07 51°17.791 2°47.055 12.7328 3.946592 33.625708 32.395699
2008-05-07 08:10:12 51°17.785 2°47.026 12.7284 3.946592 33.625708 32.395699
2008-05-07 08:10:17 51°17.778 2°46.998 12.7318 3.947318 33.634892 32.221579
2008-05-07 08:10:22 51°17.771 2°46.97 12.7252 3.947837 33.640582 31.873339
2008-05-07 08:10:27 51°17.764 2°46.941 12.7255 3.948459 33.64802 32.012635
2008-05-07 08:10:32 51°17.757 2°46.913 12.723 3.949289 33.658194 31.838514
2008-05-07 08:10:37 51°17.751 2°46.885 12.7222 3.950015 33.668146 31.594746
2008-05-07 08:10:42 51°17.745 2°46.856 12.7206 3.950015 33.668146 31.594746
2008-05-07 08:10:47 51°17.738 2°46.828 12.7123 3.950844 33.678323 31.525098
2008-05-07 08:10:52 51°17.733 2°46.799 12.7083 3.951363 33.68478 31.525098
2008-05-07 08:10:57 51°17.726 2°46.77 12.705 3.952192 33.694959 31.385802
2008-05-07 08:11:02 51°17.721 2°46.741 12.705 3.953126 33.706891 31.002737
2008-05-07 08:11:07 51°17.714 2°46.712 12.7006 3.953748 33.714338 31.037561
2008-05-07 08:11:12 51°17.708 2°46.683 12.6977 3.953748 33.714338 31.037561
2008-05-07 08:11:17 51°17.7 2°46.655 12.6985 3.95437 33.721785 31.211682
2008-05-07 08:11:22 51°17.693 2°46.627 12.6931 3.955407 33.735474 30.898265
2008-05-07 08:11:27 51°17.685 2°46.599 12.69 3.956652 33.751906 30.724145
2008-05-07 08:11:31 51°17.678 2°46.578 12.6903 3.957378 33.761876 30.828617
2008-05-07 08:11:37 51°17.667 2°46.546 12.6869 3.958311 33.773823 30.758969
2008-05-07 08:11:42 51°17.657 2°46.52 12.6839 3.958311 33.773823 30.758969
2008-05-07 08:11:47 51°17.646 2°46.494 12.6761 3.959141 33.784785 30.758969
2008-05-07 08:11:52 51°17.635 2°46.469 12.6773 3.960074 33.796737 31.002737
2008-05-07 08:11:57 51°17.624 2°46.444 12.6718 3.960904 33.806937 31.002737
2008-05-07 08:12:02 51°17.612 2°46.421 12.6705 3.96163 33.816918 31.072385
2008-05-07 08:12:07 51°17.6 2°46.396 12.6643 3.962459 33.827889 30.758969
2008-05-07 08:12:12 51°17.587 2°46.374 12.6629 3.962459 33.827889 30.758969
2008-05-07 08:12:17 51°17.574 2°46.352 12.6562 3.963497 33.840838 30.375904
2008-05-07 08:12:22 51°17.56 2°46.33 12.6573 3.964534 33.853022 29.958016
2008-05-07 08:12:27 51°17.547 2°46.309 12.6513 3.965467 33.864988 29.470479
2008-05-07 08:12:32 51°17.532 2°46.288 12.6514 3.966504 33.877945 29.679423
2008-05-07 08:12:37 51°17.519 2°46.266 12.652 3.967334 33.888929 29.435655
2008-05-07 08:12:42 51°17.504 2°46.247 12.649 3.967334 33.888929 29.435655
2008-05-07 08:12:47 51°17.49 2°46.225 12.642 3.968267 33.902443 29.22671
2008-05-07 08:12:52 51°17.475 2°46.206 12.6391 3.968993 33.913214 29.157062
2008-05-07 08:12:57 51°17.46 2°46.187 12.6327 3.969823 33.924976 29.087414
2008-05-07 08:13:02 51°17.446 2°46.167 12.6327 3.970445 33.933222 29.122238
2008-05-07 08:13:07 51°17.431 2°46.148 12.6275 3.971067 33.940697 28.87847
2008-05-07 08:13:12 51°17.416 2°46.129 12.6298 3.971067 33.940697 28.87847
2008-05-07 08:13:17 51°17.401 2°46.111 12.6231 3.97169 33.950488 28.773998
2008-05-07 08:13:22 51°17.386 2°46.091 12.6247 3.972416 33.961271 28.87847
2008-05-07 08:13:27 51°17.371 2°46.072 12.618 3.973245 33.972273 28.739174
2008-05-07 08:13:32 51°17.356 2°46.053 12.6099 3.973764 33.981082 28.739174
2008-05-07 08:13:37 51°17.341 2°46.034 12.6086 3.974386 33.988564 28.913294
2008-05-07 08:13:42 51°17.326 2°46.016 12.6037 3.974386 33.988564 28.913294
2008-05-07 08:13:47 51°17.311 2°45.996 12.5907 3.974801 33.995614 29.157062
2008-05-07 08:13:52 51°17.296 2°45.977 12.5914 3.975423 34.004645 29.435655
2008-05-07 08:13:57 51°17.282 2°45.957 12.5773 3.975838 34.012472 29.574951
2008-05-07 08:14:02 51°17.268 2°45.937 12.5745 3.976461 34.023054 30.027664
2008-05-07 08:14:07 51°17.253 2°45.917 12.5605 3.976876 34.032434 30.863441
2008-05-07 08:14:12 51°17.238 2°45.897 12.558 3.976876 34.032434 30.863441
2008-05-07 08:14:17 51°17.223 2°45.877 12.5509 3.97729 34.040267 31.559922
2008-05-07 08:14:22 51°17.209 2°45.857 12.5386 3.977913 34.053184 32.534996
2008-05-07 08:14:27 51°17.194 2°45.837 12.5316 3.978328 34.062573 34.03243
2008-05-07 08:14:32 51°17.18 2°45.818 12.5222 3.978743 34.075069 35.216448
2008-05-07 08:14:37 51°17.165 2°45.799 12.5235 3.979158 34.088349 36.644234
2008-05-07 08:14:42 51°17.15 2°45.78 12.52 3.979158 34.088349 36.644234
2008-05-07 08:14:47 51°17.136 2°45.76 12.5167 3.979261 34.09633 37.967548
2008-05-07 08:14:52 51°17.121 2°45.741 12.5142 3.979365 34.104315 39.569454
2008-05-07 08:14:57 51°17.106 2°45.721 12.5086 3.979677 34.116621 40.82312
2008-05-07 08:15:02 51°17.092 2°45.701 12.508 3.97978 34.126949 41.867842
2008-05-07 08:15:07 51°17.077 2°45.682 12.5084 3.979677 34.131405 42.564323
2008-05-07 08:15:12 51°17.063 2°45.663 12.5031 3.979677 34.131405 42.564323
2008-05-07 08:15:17 51°17.048 2°45.643 12.5038 3.979573 34.135084 43.469748
2008-05-07 08:15:22 51°17.033 2°45.624 12.5004 3.979573 34.138199 43.922461
2008-05-07 08:15:27 51°17.019 2°45.603 12.5011 3.979677 34.143086 44.096581
2008-05-07 08:15:32 51°17.004 2°45.585 12.4991 3.979677 34.148541 44.793062
2008-05-07 08:15:37 51°16.99 2°45.564 12.4954 3.979781 34.151092 45.071655
2008-05-07 08:15:42 51°16.975 2°45.546 12.4923 3.979781 34.151092 45.071655
2008-05-07 08:15:47 51°16.96 2°45.526 12.4926 3.97584 34.115695 45.698488
2008-05-07 08:15:52 51°16.946 2°45.507 12.4904 3.976151 34.12101 46.116376
2008-05-07 08:15:57 51°16.931 2°45.487 12.4904 3.977292 34.134272 46.464617
2008-05-07 08:16:02 51°16.916 2°45.468 12.4892 3.977707 34.139803 47.404866
2008-05-07 08:16:07 51°16.902 2°45.449 12.4896 3.976359 34.130008 47.857579
2008-05-07 08:16:12 51°16.887 2°45.43 12.4935 3.976359 34.130008 47.857579
2008-05-07 08:16:17 51°16.872 2°45.41 12.4955 3.978329 34.15044 48.588884
2008-05-07 08:16:22 51°16.858 2°45.39 12.4994 3.978744 34.156753 48.832653
2008-05-07 08:16:27 51°16.843 2°45.371 12.4978 3.979366 34.164275 49.424662
2008-05-07 08:16:31 51°16.831 2°45.355 12.4989 3.979781 34.169029 49.563958
2008-05-07 08:16:37 51°16.814 2°45.332 12.5037 3.979574 34.167822 49.703254
2008-05-07 08:16:42 51°16.799 2°45.312 12.5006 3.979574 34.167822 49.703254
2008-05-07 08:16:47 51°16.784 2°45.293 12.5062 3.980403 34.17421 49.772902
2008-05-07 08:16:52 51°16.77 2°45.273 12.5018 3.981233 34.179818 49.807726
2008-05-07 08:16:57 51°16.756 2°45.254 12.5043 3.981544 34.181237 50.155967
2008-05-07 08:17:02 51°16.741 2°45.234 12.5064 3.980507 34.171302 50.330087
2008-05-07 08:17:07 51°16.727 2°45.216 12.5072 3.981337 34.17847 50.295263
2008-05-07 08:17:12 51°16.712 2°45.196 12.5097 3.981337 34.17847 50.295263
2008-05-07 08:17:17 51°16.698 2°45.177 12.5122 3.982477 34.188618 50.051495
2008-05-07 08:17:22 51°16.684 2°45.157 12.5105 3.981129 34.174142 50.086319
2008-05-07 08:17:27 51°16.669 2°45.138 12.5149 3.981855 34.180316 49.807726
2008-05-07 08:17:32 51°16.655 2°45.119 12.5143 3.983618 34.196424 49.424662
2008-05-07 08:17:37 51°16.64 2°45.099 12.5208 3.982996 34.188902 49.355013
2008-05-07 08:17:42 51°16.626 2°45.08 12.5178 3.982996 34.188902 49.355013
2008-05-07 08:17:47 51°16.612 2°45.061 12.5243 3.984344 34.200256 49.006773
2008-05-07 08:17:52 51°16.598 2°45.042 12.5219 3.984551 34.200681 48.623708
2008-05-07 08:17:57 51°16.583 2°45.022 12.5224 3.985277 34.206854 48.310292
2008-05-07 08:18:02 51°16.569 2°45.003 12.5262 3.985381 34.205505 47.962051
2008-05-07 08:18:07 51°16.554 2°44.983 12.5262 3.9859 34.208129 47.613811
2008-05-07 08:18:12 51°16.54 2°44.963 12.5277 3.9859 34.208129 47.613811
2008-05-07 08:18:17 51°16.525 2°44.944 12.5281 3.98507 34.198622 47.370042
2008-05-07 08:18:22 51°16.511 2°44.925 12.5312 3.986211 34.207206 47.230746
2008-05-07 08:18:27 51°16.497 2°44.905 12.5329 3.986003 34.204439 47.230746
2008-05-07 08:18:31 51°16.486 2°44.889 12.5358 3.986314 34.206638 47.126274
2008-05-07 08:18:37 51°16.468 2°44.867 12.535 3.984655 34.188408 47.09145
2008-05-07 08:18:42 51°16.455 2°44.847 12.5418 3.984655 34.188408 47.09145
2008-05-07 08:18:47 51°16.44 2°44.828 12.537 3.986314 34.203516 46.569089
2008-05-07 08:18:52 51°16.427 2°44.809 12.5395 3.987455 34.212879 46.534265
2008-05-07 08:18:57 51°16.413 2°44.79 12.5436 3.987248 34.208551 46.534265
2008-05-07 08:19:02 51°16.398 2°44.77 12.544 3.988803 34.221885 46.603913
2008-05-07 08:19:07 51°16.384 2°44.751 12.5449 3.988181 34.213586 46.325321
2008-05-07 08:19:12 51°16.37 2°44.731 12.5453 3.988181 34.213586 46.325321
2008-05-07 08:19:17 51°16.356 2°44.711 12.547 3.98704 34.201104 45.837784
2008-05-07 08:19:22 51°16.342 2°44.692 12.5482 3.989633 34.225145 45.419895
2008-05-07 08:19:27 51°16.328 2°44.673 12.5488 3.989425 34.221598 45.385071
2008-05-07 08:19:32 51°16.314 2°44.653 12.5494 3.988492 34.211102 45.106479
2008-05-07 08:19:37 51°16.299 2°44.634 12.5498 3.989944 34.22344 44.723414
2008-05-07 08:19:42 51°16.286 2°44.613 12.5512 3.989944 34.22344 44.723414
2008-05-07 08:19:47 51°16.271 2°44.594 12.5521 3.990151 34.223865 44.827887
2008-05-07 08:19:52 51°16.258 2°44.573 12.5522 3.988284 34.205216 44.897535
2008-05-07 08:19:57 51°16.244 2°44.553 12.5533 3.980195 34.127027 45.002007
2008-05-07 08:20:02 51°16.231 2°44.532 12.5528 3.991188 34.23067 45.210951
2008-05-07 08:20:07 51°16.217 2°44.511 12.5553 3.991188 34.229109 45.210951
2008-05-07 08:20:12 51°16.204 2°44.49 12.5573 3.991188 34.229109 45.210951
2008-05-07 08:20:17 51°16.189 2°44.47 12.5617 3.991499 34.231306 45.002007
2008-05-07 08:20:22 51°16.176 2°44.449 12.5595 3.991707 34.232511 44.932359
2008-05-07 08:20:27 51°16.163 2°44.428 12.5608 3.991914 34.233716 44.618942
2008-05-07 08:20:32 51°16.149 2°44.408 12.5635 3.990566 34.219252 44.479646
2008-05-07 08:20:37 51°16.135 2°44.387 12.5638 3.992122 34.23414 44.444822
2008-05-07 08:20:42 51°16.122 2°44.367 12.5613 3.992122 34.23414 44.444822
2008-05-07 08:20:47 51°16.108 2°44.346 12.5628 3.992225 34.233572 44.305526
2008-05-07 08:20:51 51°16.097 2°44.33 12.5624 3.992329 34.232223 43.922461
2008-05-07 08:20:57 51°16.08 2°44.305 12.5659 3.991499 34.223504 44.166229
2008-05-07 08:21:02 51°16.067 2°44.284 12.5659 3.991707 34.223929 44.270702
2008-05-07 08:21:07 51°16.053 2°44.264 12.5666 3.992744 34.233072 44.166229
2008-05-07 08:21:12 51°16.039 2°44.243 12.5674 3.992744 34.233072 44.166229
2008-05-07 08:21:17 51°16.026 2°44.221 12.5669 3.99181 34.224141 44.096581
2008-05-07 08:21:22 51°16.012 2°44.201 12.5664 3.992122 34.226338 44.444822
2008-05-07 08:21:27 51°15.999 2°44.181 12.5673 3.992433 34.229315 44.409998
2008-05-07 08:21:32 51°15.984 2°44.161 12.5707 3.992329 34.227542 44.51447
2008-05-07 08:21:37 51°15.97 2°44.141 12.571 3.992951 34.231936 44.305526
2008-05-07 08:21:42 51°15.956 2°44.122 12.5703 3.992951 34.231936 44.305526
2008-05-07 08:21:47 51°15.941 2°44.103 12.5729 3.99181 34.220241 44.444822
2008-05-07 08:21:52 51°15.927 2°44.083 12.5723 3.99264 34.227399 44.618942
2008-05-07 08:21:57 51°15.912 2°44.064 12.5735 3.992329 34.224422 44.827887
2008-05-07 08:22:02 51°15.897 2°44.045 12.5768 3.991914 34.220454 44.758238
2008-05-07 08:22:07 51°15.883 2°44.026 12.5778 3.993055 34.229808 44.827887
2008-05-07 08:22:12 51°15.868 2°44.007 12.5763 3.993055 34.229808 44.827887
2008-05-07 08:22:17 51°15.854 2°43.988 12.5768 3.992018 34.219106 44.758238
2008-05-07 08:22:22 51°15.839 2°43.969 12.5788 3.991914 34.216555 44.51447
2008-05-07 08:22:27 51°15.825 2°43.949 12.5766 3.99181 34.214783 44.270702
2008-05-07 08:22:32 51°15.81 2°43.93 12.58 3.990669 34.202312 43.887637
2008-05-07 08:22:37 51°15.796 2°43.91 12.5772 3.988803 34.183679 43.748341
2008-05-07 08:22:42 51°15.783 2°43.889 12.5834 3.988803 34.183679 43.748341
2008-05-07 08:22:47 51°15.768 2°43.869 12.5814 3.993573 34.22853 43.22598
2008-05-07 08:22:51 51°15.758 2°43.852 12.5837 3.993055 34.223569 43.121508
2008-05-07 08:22:57 51°15.741 2°43.827 12.5833 3.993158 34.223782 42.808091
2008-05-07 08:23:02 51°15.727 2°43.806 12.5817 3.991914 34.211099 42.912564
2008-05-07 08:23:07 51°15.713 2°43.786 12.5857 3.992847 34.218467 42.668795
2008-05-07 08:23:12 51°15.699 2°43.766 12.5829 3.992847 34.218467 42.668795
2008-05-07 08:23:17 51°15.685 2°43.745 12.59 3.991914 34.208761 42.564323
2008-05-07 08:23:22 51°15.671 2°43.726 12.5872 3.993884 34.227607 42.668795
2008-05-07 08:23:27 51°15.657 2°43.705 12.5882 3.992121 34.209186 42.529499
2008-05-07 08:23:32 51°15.643 2°43.685 12.5926 3.994714 34.233983 42.459851
2008-05-07 08:23:37 51°15.628 2°43.665 12.5916 3.993677 34.223284 42.425027
2008-05-07 08:23:42 51°15.614 2°43.646 12.5951 3.993677 34.223284 42.425027
2008-05-07 08:23:47 51°15.6 2°43.626 12.596 3.994714 34.232423 42.425027
2008-05-07 08:23:52 51°15.585 2°43.607 12.598 3.992744 34.21202 42.320555
2008-05-07 08:23:57 51°15.571 2°43.585 12.6028 3.991084 34.195373 42.355379
2008-05-07 08:24:02 51°15.557 2°43.566 12.5993 3.993158 34.213649 41.519601
2008-05-07 08:24:07 51°15.543 2°43.545 12.5996 3.990669 34.188292 41.241009
2008-05-07 08:24:12 51°15.529 2°43.524 12.6009 3.990669 34.188292 41.241009
2008-05-07 08:24:17 51°15.516 2°43.503 12.6038 3.991084 34.189923 40.962417
2008-05-07 08:24:22 51°15.502 2°43.482 12.6085 3.992329 34.200264 40.440056
2008-05-07 08:24:27 51°15.488 2°43.461 12.6075 3.99181 34.193749 40.091815
2008-05-07 08:24:32 51°15.474 2°43.44 12.6105 3.99461 34.218961 39.569454
2008-05-07 08:24:37 51°15.46 2°43.42 12.6105 3.994403 34.216199 38.977445
2008-05-07 08:24:42 51°15.447 2°43.399 12.613 3.994403 34.216199 38.977445
2008-05-07 08:24:47 51°15.433 2°43.378 12.6135 3.993573 34.20671 38.350613
2008-05-07 08:24:52 51°15.419 2°43.357 12.6177 3.99544 34.222998 37.967548
2008-05-07 08:24:57 51°15.405 2°43.335 12.6189 3.994714 34.213721 37.305891
2008-05-07 08:25:02 51°15.392 2°43.315 12.6225 3.993158 34.197295 36.574586
2008-05-07 08:25:07 51°15.378 2°43.293 12.6262 3.994299 34.206642 35.843281
2008-05-07 08:25:11 51°15.367 2°43.277 12.6261 3.994299 34.206642 35.843281
2008-05-07 08:25:17 51°15.351 2°43.251 12.6272 3.99378 34.19935 35.286096
2008-05-07 08:25:22 51°15.336 2°43.231 12.6303 3.992847 34.188874 34.728911
2008-05-07 08:25:27 51°15.323 2°43.21 12.6318 3.993054 34.188522 34.450318
2008-05-07 08:25:32 51°15.308 2°43.191 12.6334 3.99544 34.208981 33.997606
2008-05-07 08:25:37 51°15.294 2°43.17 12.6353 3.991187 34.165243 33.614541
2008-05-07 08:25:42 51°15.279 2°43.151 12.639 3.991187 34.165243 33.614541
2008-05-07 08:25:47 51°15.265 2°43.13 12.6363 3.991291 34.164679 33.544893
2008-05-07 08:25:52 51°15.251 2°43.111 12.6405 3.990254 34.153219 33.161829
2008-05-07 08:25:57 51°15.236 2°43.092 12.6388 3.998551 34.230925 33.266301
2008-05-07 08:26:02 51°15.222 2°43.071 12.6413 3.998966 34.232553 33.266301
2008-05-07 08:26:07 51°15.208 2°43.052 12.6414 3.999173 34.232198 33.440421
2008-05-07 08:26:12 51°15.193 2°43.032 12.6429 3.999173 34.232198 33.440421
2008-05-07 08:26:17 51°15.179 2°43.012 12.6441 3.99938 34.231844 33.231477
2008-05-07 08:26:22 51°15.165 2°42.991 12.6457 3.999484 34.232057 33.231477
2008-05-07 08:26:27 51°15.15 2°42.972 12.6462 3.999692 34.232481 33.022532
2008-05-07 08:26:32 51°15.136 2°42.951 12.6491 3.999692 34.231703 32.952884
2008-05-07 08:26:37 51°15.122 2°42.932 12.6508 3.999692 34.230146 32.813588
2008-05-07 08:26:42 51°15.107 2°42.912 12.6497 3.999692 34.230146 32.813588
2008-05-07 08:26:47 51°15.093 2°42.892 12.6534 4.000003 34.232339 32.500171
2008-05-07 08:26:52 51°15.079 2°42.872 12.6514 4.000106 34.231773 32.117107
2008-05-07 08:26:57 51°15.065 2°42.852 12.6554 4.00021 34.231985 31.699218
2008-05-07 08:27:02 51°15.05 2°42.832 12.6534 4.000314 34.231419 31.559922
2008-05-07 08:27:07 51°15.036 2°42.812 12.6538 4.000417 34.230853 31.037561
2008-05-07 08:27:12 51°15.022 2°42.792 12.6541 4.000417 34.230853 31.037561
2008-05-07 08:27:17 51°15.008 2°42.771 12.6566 4.000521 34.230287 30.758969
2008-05-07 08:27:22 51°14.993 2°42.752 12.6553 4.000625 34.229722 29.958016
2008-05-07 08:27:27 51°14.979 2°42.731 12.6561 4.000728 34.229934 29.888367
2008-05-07 08:27:32 51°14.965 2°42.711 12.6535 4.000832 34.230146 29.122238
2008-05-07 08:27:37 51°14.951 2°42.69 12.6556 4.000936 34.230358 28.843646
2008-05-07 08:27:42 51°14.937 2°42.67 12.6581 4.000936 34.230358 28.843646
2008-05-07 08:27:47 51°14.923 2°42.65 12.657 4.000832 34.22859 28.390933
2008-05-07 08:27:52 51°14.909 2°42.629 12.6559 4.000936 34.228802 28.077517
2008-05-07 08:27:57 51°14.895 2°42.609 12.6572 4.000832 34.227812 27.659628
2008-05-07 08:28:02 51°14.881 2°42.588 12.6551 4.000832 34.227812 27.102443
2008-05-07 08:28:07 51°14.867 2°42.568 12.6548 4.000728 34.226044 26.858675
2008-05-07 08:28:12 51°14.852 2°42.547 12.6563 4.000728 34.226044 26.858675
2008-05-07 08:28:17 51°14.839 2°42.526 12.6569 4.000728 34.226044 26.64973
2008-05-07 08:28:22 51°14.824 2°42.506 12.6571 4.000002 34.218334 26.440786
2008-05-07 08:28:27 51°14.811 2°42.485 12.6587 4.000625 34.224276 26.336314
2008-05-07 08:28:32 51°14.796 2°42.465 12.6599 4.000521 34.223286 26.022897
2008-05-07 08:28:37 51°14.782 2°42.444 12.6584 4.000417 34.223073 25.848777
2008-05-07 08:28:42 51°14.769 2°42.423 12.6581 4.000417 34.223073 25.848777
2008-05-07 08:28:47 51°14.755 2°42.402 12.66 4.00021 34.221093 25.848777
2008-05-07 08:28:52 51°14.741 2°42.381 12.6621 4.000314 34.222083 25.813953
2008-05-07 08:28:57 51°14.727 2°42.36 12.6635 4.000106 34.219325 25.779129
2008-05-07 08:29:02 51°14.713 2°42.339 12.6626 3.99741 34.192803 25.396065
2008-05-07 08:29:07 51°14.699 2°42.318 12.6632 4.000106 34.217769 25.256768
2008-05-07 08:29:12 51°14.685 2°42.298 12.6662 4.000106 34.217769 25.256768
2008-05-07 08:29:17 51°14.671 2°42.277 12.6675 4.000106 34.216992 24.908528
2008-05-07 08:29:22 51°14.657 2°42.256 12.6668 4.000106 34.216214 24.978176
2008-05-07 08:29:27 51°14.643 2°42.235 12.6682 4.000002 34.214446 24.873704
2008-05-07 08:29:32 51°14.629 2°42.214 12.6693 3.998758 34.201788 24.629935
2008-05-07 08:29:37 51°14.615 2°42.193 12.6706 3.999899 34.211901 24.595111
2008-05-07 08:29:42 51°14.602 2°42.172 12.6717 3.999899 34.211901 24.595111
2008-05-07 08:29:47 51°14.588 2°42.151 12.674 3.999899 34.210347 24.560287
2008-05-07 08:29:52 51°14.574 2°42.13 12.6747 3.999899 34.209569 24.595111
2008-05-07 08:29:57 51°14.56 2°42.109 12.6757 3.999899 34.208792 24.664759
2008-05-07 08:30:02 51°14.546 2°42.088 12.6783 3.999173 34.200308 24.595111
2008-05-07 08:30:07 51°14.532 2°42.067 12.6807 3.999795 34.20547 24.664759
2008-05-07 08:30:12 51°14.518 2°42.046 12.6819 3.999795 34.20547 24.664759
2008-05-07 08:30:17 51°14.504 2°42.025 12.6845 3.998965 34.195998 24.734408
2008-05-07 08:30:22 51°14.49 2°42.004 12.6868 3.996061 34.166733 25.013
2008-05-07 08:30:27 51°14.476 2°41.984 12.688 3.999691 34.200596 25.152296
2008-05-07 08:30:32 51°14.462 2°41.963 12.6901 3.999691 34.198265 25.535361
2008-05-07 08:30:37 51°14.448 2°41.941 12.6918 3.997202 34.172961 25.848777
2008-05-07 08:30:42 51°14.434 2°41.921 12.693 3.997202 34.172961 25.848777
2008-05-07 08:30:47 51°14.42 2°41.899 12.6953 3.999898 34.196361 25.918425
2008-05-07 08:30:52 51°14.406 2°41.878 12.6965 4.000002 34.19502 25.918425
2008-05-07 08:30:57 51°14.392 2°41.857 12.6983 3.999795 34.191488 25.918425
2008-05-07 08:31:02 51°14.379 2°41.835 12.7015 4.000106 34.192904 25.988073
2008-05-07 08:31:07 51°14.364 2°41.815 12.7015 3.999691 34.186617 26.231842
2008-05-07 08:31:12 51°14.351 2°41.792 12.7033 3.999691 34.186617 26.231842
2008-05-07 08:31:17 51°14.337 2°41.771 12.705 4.000106 34.189022 26.440786
2008-05-07 08:31:22 51°14.324 2°41.748 12.7068 3.998135 34.167898 26.614906
2008-05-07 08:31:27 51°14.311 2°41.727 12.7124 4.000417 34.187333 26.858675
2008-05-07 08:31:32 51°14.298 2°41.704 12.7101 4.000209 34.183803 26.823851
2008-05-07 08:31:37 51°14.284 2°41.682 12.7101 3.999794 34.177519 26.928323
2008-05-07 08:31:42 51°14.271 2°41.659 12.7104 3.999794 34.177519 26.928323
2008-05-07 08:31:47 51°14.257 2°41.637 12.7117 3.999794 34.175967 27.067619
2008-05-07 08:31:52 51°14.245 2°41.614 12.7114 4.000624 34.182328 27.659628
2008-05-07 08:31:57 51°14.23 2°41.593 12.711 4.000728 34.180989 28.112341
2008-05-07 08:32:02 51°14.218 2°41.57 12.7188 3.996476 34.138123 28.495405
2008-05-07 08:32:07 51°14.204 2°41.549 12.714 3.996372 34.136359 29.400831
2008-05-07 08:32:12 51°14.19 2°41.526 12.7116 3.996372 34.136359 29.400831
2008-05-07 08:32:17 51°14.177 2°41.504 12.7135 4.000831 34.1781 30.375904
2008-05-07 08:32:22 51°14.163 2°41.483 12.7123 4.000935 34.178314 31.350978
2008-05-07 08:32:27 51°14.15 2°41.46 12.7139 4.000935 34.177538 31.838514
2008-05-07 08:32:32 51°14.136 2°41.438 12.7129 4.000935 34.177538 32.91806
2008-05-07 08:32:37 51°14.123 2°41.416 12.712 4.001039 34.176976 33.962782
2008-05-07 08:32:42 51°14.109 2°41.394 12.7104 4.001039 34.176976 33.962782
2008-05-07 08:32:47 51°14.096 2°41.371 12.7124 4.000935 34.176763 34.937855
2008-05-07 08:32:52 51°14.082 2°41.35 12.7122 4.000935 34.176763 35.529864
2008-05-07 08:32:57 51°14.069 2°41.327 12.7117 4.000831 34.174998 36.121873
2008-05-07 08:33:02 51°14.055 2°41.306 12.714 4.000831 34.174998 37.201419
2008-05-07 08:33:07 51°14.042 2°41.283 12.7134 4.000831 34.175774 38.315788
2008-05-07 08:33:12 51°14.028 2°41.261 12.7118 4.000831 34.175774 38.315788
2008-05-07 08:33:17 51°14.015 2°41.238 12.7108 4.000831 34.175774 39.047094
2008-05-07 08:33:22 51°14.001 2°41.216 12.7075 4.000831 34.175774 39.882871
2008-05-07 08:33:27 51°13.987 2°41.195 12.709 4.000728 34.174785 40.788296
2008-05-07 08:33:32 51°13.974 2°41.172 12.7106 4.000831 34.175774 41.658898
2008-05-07 08:33:37 51°13.96 2°41.151 12.7071 4.000831 34.175774 42.529499
2008-05-07 08:33:42 51°13.946 2°41.13 12.703 4.000831 34.175774 42.529499
2008-05-07 08:33:47 51°13.932 2°41.108 12.7026 4.000831 34.174998 44.270702
2008-05-07 08:33:52 51°13.918 2°41.087 12.7024 4.000831 34.176549 45.80296
2008-05-07 08:33:57 51°13.904 2°41.065 12.6991 4.000728 34.176336 46.603913
2008-05-07 08:34:02 51°13.89 2°41.043 12.696 4.000624 34.176123 47.962051
2008-05-07 08:34:07 51°13.877 2°41.021 12.6977 3.999587 34.16701 50.225615
2008-05-07 08:34:12 51°13.862 2°41 12.6875 3.999587 34.16701 50.225615
2008-05-07 08:34:17 51°13.849 2°40.977 12.6882 4.000313 34.176258 51.966818
2008-05-07 08:34:22 51°13.835 2°40.957 12.6867 3.999172 34.166156 53.324956
2008-05-07 08:34:27 51°13.82 2°40.935 12.6805 3.999483 34.169898 54.64827
2008-05-07 08:34:31 51°13.809 2°40.918 12.6782 3.999691 34.172651 55.832287
2008-05-07 08:34:37 51°13.792 2°40.892 12.6671 3.999068 34.170595 57.921731
2008-05-07 08:34:42 51°13.779 2°40.869 12.669 3.999068 34.170595 57.921731
2008-05-07 08:34:47 51°13.764 2°40.848 12.6655 3.99938 34.176665 58.583388
2008-05-07 08:34:52 51°13.75 2°40.826 12.6568 3.998654 34.172844 59.488813
2008-05-07 08:34:57 51°13.737 2°40.804 12.6511 3.998135 34.170226 60.011174
2008-05-07 08:35:02 51°13.723 2°40.781 12.6467 3.998446 34.176297 60.359414
2008-05-07 08:35:07 51°13.709 2°40.76 12.6378 3.996165 34.159187 60.603183
2008-05-07 08:35:12 51°13.695 2°40.737 12.6313 3.996165 34.159187 60.603183
2008-05-07 08:35:17 51°13.681 2°40.715 12.6292 3.997513 34.177482 60.220118
2008-05-07 08:35:22 51°13.668 2°40.692 12.6211 3.996995 34.177192 60.080822
2008-05-07 08:35:27 51°13.654 2°40.67 12.6159 3.99658 34.177116 59.488813
2008-05-07 08:35:32 51°13.641 2°40.648 12.6106 3.995958 34.178166 58.792332
2008-05-07 08:35:37 51°13.627 2°40.626 12.6029 3.995439 34.178653 58.026203
2008-05-07 08:35:42 51°13.613 2°40.604 12.5867 3.995439 34.178653 58.026203
2008-05-07 08:35:47 51°13.599 2°40.583 12.5775 3.994713 34.177938 56.946657
2008-05-07 08:35:52 51°13.585 2°40.561 12.571 3.994195 34.179203 56.493945
2008-05-07 08:35:57 51°13.57 2°40.54 12.5626 3.993676 34.178137 55.588519
2008-05-07 08:36:02 51°13.556 2°40.519 12.5457 3.99098 34.160153 55.100982
2008-05-07 08:36:07 51°13.542 2°40.498 12.5389 3.992328 34.182363 54.543797
2008-05-07 08:36:12 51°13.527 2°40.477 12.5267 3.992328 34.182363 54.543797
2008-05-07 08:36:17 51°13.513 2°40.456 12.5258 3.991395 34.182779 54.091085
2008-05-07 08:36:22 51°13.499 2°40.435 12.5165 3.990565 34.184187 53.255308
2008-05-07 08:36:27 51°13.484 2°40.414 12.5163 3.989736 34.185596 52.315058
2008-05-07 08:36:32 51°13.47 2°40.393 12.5001 3.988906 34.186228 51.514105
2008-05-07 08:36:37 51°13.456 2°40.372 12.4942 3.988181 34.19097 50.887272
2008-05-07 08:36:42 51°13.442 2°40.35 12.4926 3.988181 34.19097 50.887272
2008-05-07 08:36:47 51°13.428 2°40.328 12.4798 3.987144 34.18962 50.364911
2008-05-07 08:36:52 51°13.414 2°40.307 12.4725 3.985692 34.185079 49.738078
2008-05-07 08:36:57 51°13.401 2°40.284 12.4674 3.984655 34.184508 48.902301
2008-05-07 08:37:02 51°13.387 2°40.262 12.4605 3.984655 34.189188 47.753107
2008-05-07 08:37:07 51°13.374 2°40.24 12.4555 3.982892 34.182447 47.404866
2008-05-07 08:37:12 51°13.36 2°40.218 12.4459 3.982892 34.182447 47.404866
2008-05-07 08:37:17 51°13.346 2°40.196 12.4407 3.982685 34.188263 46.812858
2008-05-07 08:37:22 51°13.332 2°40.175 12.4243 3.982581 34.195077 46.464617
2008-05-07 08:37:27 51°13.319 2°40.152 12.4236 3.982063 34.196356 45.97708
2008-05-07 08:37:32 51°13.305 2°40.131 12.4143 3.981337 34.19721 45.698488
2008-05-07 08:37:37 51°13.291 2°40.109 12.4097 3.9803 34.194301 45.62884
2008-05-07 08:37:42 51°13.278 2°40.087 12.4088 3.9803 34.194301 45.62884
2008-05-07 08:37:47 51°13.264 2°40.065 12.4056 3.97947 34.194162 45.768136
2008-05-07 08:37:52 51°13.251 2°40.043 12.4009 3.979367 34.201767 45.942256
2008-05-07 08:37:57 51°13.237 2°40.022 12.3917 3.977293 34.190474 46.534265
2008-05-07 08:38:02 51°13.223 2°40 12.3824 3.977915 34.205049 46.394969
2008-05-07 08:38:07 51°13.209 2°39.978 12.3873 3.976256 34.196169 46.464617
2008-05-07 08:38:12 51°13.195 2°39.956 12.3753 3.976256 34.196169 46.464617
2008-05-07 08:38:17 51°13.181 2°39.935 12.3741 3.976671 34.204846 46.743209
2008-05-07 08:38:22 51°13.167 2°39.914 12.368 3.976152 34.205349 46.952154
2008-05-07 08:38:27 51°13.153 2°39.893 12.3627 3.975737 34.207632 46.847682
2008-05-07 08:38:32 51°13.139 2°39.872 12.3675 3.973041 34.187224 46.638737
2008-05-07 08:38:37 51°13.125 2°39.851 12.3601 3.973767 34.20046 46.603913
2008-05-07 08:38:42 51°13.11 2°39.831 12.36 3.973767 34.20046 46.603913
2008-05-07 08:38:47 51°13.096 2°39.81 12.354 3.974286 34.210141 46.708385
2008-05-07 08:38:52 51°13.081 2°39.789 12.357 3.972834 34.201681 46.778034
2008-05-07 08:38:57 51°13.067 2°39.769 12.3549 3.972523 34.204962 46.91733
2008-05-07 08:39:02 51°13.053 2°39.748 12.3549 3.972627 34.20831 47.021802
2008-05-07 08:39:07 51°13.038 2°39.728 12.3533 3.971797 34.201906 47.021802
2008-05-07 08:39:12 51°13.024 2°39.707 12.3521 3.971797 34.201906 47.021802
2008-05-07 08:39:17 51°13.01 2°39.687 12.3509 3.972627 34.213799 46.778034
2008-05-07 08:39:22 51°12.996 2°39.666 12.3559 3.972316 34.214731 47.021802
2008-05-07 08:39:27 51°12.981 2°39.646 12.3502 3.971797 34.211316 47.056626
2008-05-07 08:39:32 51°12.968 2°39.624 12.3506 3.970034 34.195939 47.230746
2008-05-07 08:39:37 51°12.954 2°39.603 12.3562 3.971486 34.211463 46.952154
2008-05-07 08:39:42 51°12.941 2°39.581 12.3539 3.971486 34.211463 46.952154
2008-05-07 08:39:47 51°12.927 2°39.559 12.3513 3.971382 34.211251 46.812858
2008-05-07 08:39:52 51°12.913 2°39.538 12.3474 3.97076 34.206054 46.986978
2008-05-07 08:39:57 51°12.9 2°39.516 12.348 3.971694 34.215811 47.126274
2008-05-07 08:40:02 51°12.886 2°39.494 12.3474 3.971279 34.212607 47.578987
2008-05-07 08:40:07 51°12.873 2°39.472 12.3504 3.971071 34.209829 47.753107
2008-05-07 08:40:12 51°12.86 2°39.45 12.352 3.971071 34.209829 47.753107
2008-05-07 08:40:17 51°12.846 2°39.429 12.3502 3.971382 34.21282 48.310292
2008-05-07 08:40:22 51°12.832 2°39.407 12.3514 3.971175 34.211611 48.728181
2008-05-07 08:40:27 51°12.819 2°39.385 12.3508 3.97076 34.209192 48.937125
2008-05-07 08:40:32 51°12.805 2°39.363 12.3493 3.970242 34.205776 49.772902
2008-05-07 08:40:37 51°12.792 2°39.341 12.3535 3.97159 34.218737 50.399735
2008-05-07 08:40:42 51°12.778 2°39.32 12.3486 3.97159 34.218737 50.399735
2008-05-07 08:40:47 51°12.765 2°39.299 12.348 3.97159 34.218737 50.364911
2008-05-07 08:40:52 51°12.751 2°39.277 12.3481 3.97159 34.217952 51.165864
2008-05-07 08:40:57 51°12.736 2°39.256 12.3502 3.969412 34.197016 51.444457
2008-05-07 08:41:02 51°12.722 2°39.235 12.3533 3.97076 34.210761 51.827521
2008-05-07 08:41:07 51°12.708 2°39.215 12.355 3.969619 34.199794 52.41953
2008-05-07 08:41:12 51°12.694 2°39.194 12.3561 3.969619 34.199794 52.41953
2008-05-07 08:41:17 51°12.68 2°39.173 12.3558 3.969516 34.199582 52.767771
2008-05-07 08:41:22 51°12.665 2°39.153 12.354 3.97076 34.211546 53.220483
2008-05-07 08:41:27 51°12.651 2°39.132 12.3568 3.970968 34.21354 53.116011
2008-05-07 08:41:32 51°12.637 2°39.112 12.3574 3.969619 34.199794 53.116011
2008-05-07 08:41:37 51°12.623 2°39.091 12.3588 3.968997 34.193028 53.394604
2008-05-07 08:41:42 51°12.608 2°39.071 12.3575 3.968997 34.193028 53.394604
2008-05-07 08:41:47 51°12.594 2°39.05 12.3564 3.970449 34.205417 53.081187
2008-05-07 08:41:52 51°12.58 2°39.03 12.3571 3.969619 34.197441 52.941891
2008-05-07 08:41:57 51°12.566 2°39.01 12.3578 3.970553 34.206413 53.116011
2008-05-07 08:42:02 51°12.551 2°38.99 12.3607 3.971486 34.213817 53.185659
2008-05-07 08:42:07 51°12.537 2°38.97 12.3595 3.971901 34.21702 53.70802
2008-05-07 08:42:12 51°12.523 2°38.949 12.3598 3.971901 34.21702 53.70802
2008-05-07 08:42:17 51°12.508 2°38.928 12.3578 3.97159 34.213245 53.847316